Time,TemperatureF,DewpointF,PressureIn,WindDirection,WindDirectionDegrees,WindSpeedMPH,WindSpeedGustMPH,Humidity,HourlyPrecipIn,Conditions,Clouds,dailyrainin,SoftwareType,DateUTC
2013-03-17 00:01:00,38.2,35.2,29.91,SW,220,6.0,7.0,89,0.00,,BKN027,0.14,VWS V14.01,2013-03-17 07:01:00,
2013-03-17 00:03:00,38.2,35.2,29.91,SW,223,1.0,9.0,89,0.00,,BKN027,0.00,VWS V14.01,2013-03-17 07:03:00,
2013-03-17 00:05:00,38.2,35.2,29.91,South,182,3.0,9.0,89,0.00,,BKN027,0.00,VWS V14.01,2013-03-17 07:05:00,
2013-03-17 00:07:00,38.2,35.2,29.91,South,184,3.0,3.0,89,0.00,,BKN027,0.00,VWS V14.01,2013-03-17 07:07:00,
2013-03-17 00:11:00,38.2,35.2,29.91,SSW,198,2.0,4.0,89,0.00,,BKN027,0.00,VWS V14.01,2013-03-17 07:11:00,
2013-03-17 00:12:00,38.2,35.2,29.91,SSW,199,2.0,3.0,89,0.00,,BKN027,0.00,VWS V14.01,2013-03-17 07:12:00,
2013-03-17 00:16:00,38.2,35.2,29.92,SSW,199,1.0,3.0,89,0.00,,BKN027,0.00,VWS V14.01,2013-03-17 07:16:00,
2013-03-17 00:18:00,38.2,35.2,29.92,SSW,199,0.0,0.0,89,0.00,,BKN027,0.00,VWS V14.01,2013-03-17 07:18:00,
2013-03-17 00:23:00,38.0,35.3,29.92,SW,227,0.0,5.0,90,0.00,,BKN027,0.00,VWS V14.01,2013-03-17 07:23:00,
2013-03-17 00:24:00,38.0,35.3,29.92,SW,227,0.0,5.0,90,0.00,,BKN027,0.00,VWS V14.01,2013-03-17 07:24:00,
2013-03-17 00:26:00,38.0,35.3,29.92,SW,219,0.0,5.0,90,0.00,,BKN027,0.00,VWS V14.01,2013-03-17 07:26:00,
2013-03-17 00:31:00,38.0,35.3,29.93,SW,217,0.0,3.0,90,0.00,,BKN027,0.00,VWS V14.01,2013-03-17 07:31:00,
2013-03-17 00:33:00,38.0,35.3,29.93,SW,217,1.0,1.0,90,0.00,,BKN027,0.00,VWS V14.01,2013-03-17 07:33:00,
2013-03-17 00:35:00,38.0,35.3,29.93,SW,217,0.0,1.0,90,0.00,,BKN027,0.00,VWS V14.01,2013-03-17 07:35:00,
2013-03-17 00:37:00,38.0,35.3,29.93,South,175,1.0,5.0,90,0.00,,BKN027,0.00,VWS V14.01,2013-03-17 07:37:00,
2013-03-17 00:40:00,38.0,35.3,29.93,SW,216,1.0,6.0,90,0.00,,BKN027,0.00,VWS V14.01,2013-03-17 07:40:00,
2013-03-17 00:42:00,38.0,35.3,29.93,SW,216,0.0,0.0,90,0.00,,BKN027,0.00,VWS V14.01,2013-03-17 07:42:00,
2013-03-17 00:45:00,38.0,35.3,29.93,SW,216,2.0,3.0,90,0.00,,BKN027,0.00,VWS V14.01,2013-03-17 07:45:00,
2013-03-17 00:46:00,38.0,35.3,29.93,SW,224,0.0,0.0,90,0.00,,BKN027,0.00,VWS V14.01,2013-03-17 07:46:00,
2013-03-17 00:50:00,38.0,35.3,29.93,SSW,209,0.0,2.0,90,0.00,,BKN027,0.00,VWS V14.01,2013-03-17 07:50:00,
2013-03-17 00:52:00,38.0,35.3,29.93,SSW,209,0.0,0.0,90,0.00,,BKN027,0.00,VWS V14.01,2013-03-17 07:52:00,
2013-03-17 00:54:00,38.0,35.3,29.93,WSW,237,3.0,4.0,90,0.00,,BKN027,0.00,VWS V14.01,2013-03-17 07:54:00,
2013-03-17 00:56:00,38.0,35.3,29.93,SW,236,2.0,4.0,90,0.00,,BKN027,0.00,VWS V14.01,2013-03-17 07:56:00,
2013-03-17 01:00:00,38.0,35.3,29.93,SW,233,0.0,6.0,90,0.00,,BKN027,0.00,VWS V14.01,2013-03-17 08:00:00,
2013-03-17 01:01:00,38.0,35.3,29.93,SW,233,0.0,6.0,90,0.00,,OVC028,0.00,VWS V14.01,2013-03-17 08:01:00,
2013-03-17 01:02:00,38.0,35.3,29.93,SW,233,0.0,0.0,90,0.00,,OVC028,0.00,VWS V14.01,2013-03-17 08:02:00,
2013-03-17 01:03:00,38.0,35.3,29.93,SW,233,2.0,2.0,90,0.00,,OVC028,0.00,VWS V14.01,2013-03-17 08:03:00,
2013-03-17 01:05:00,38.0,35.3,29.93,SW,233,0.0,2.0,90,0.00,,OVC028,0.00,VWS V14.01,2013-03-17 08:05:00,
2013-03-17 01:07:00,38.2,35.5,29.93,SW,233,0.0,0.0,90,0.00,,OVC028,0.00,VWS V14.01,2013-03-17 08:07:00,
2013-03-17 01:10:00,38.2,35.5,29.93,SW,230,0.0,3.0,90,0.00,,OVC028,0.00,VWS V14.01,2013-03-17 08:10:00,
2013-03-17 01:12:00,38.2,35.8,29.93,SW,224,1.0,1.0,91,0.00,,OVC028,0.00,VWS V14.01,2013-03-17 08:12:00,
2013-03-17 01:14:00,38.2,35.8,29.93,SW,222,1.0,5.0,91,0.00,,OVC028,0.00,VWS V14.01,2013-03-17 08:14:00,
2013-03-17 01:17:00,38.2,35.8,29.93,SW,222,0.0,0.0,91,0.00,,OVC028,0.00,VWS V14.01,2013-03-17 08:17:00,
2013-03-17 01:18:00,38.2,35.8,29.93,SW,222,0.0,2.0,91,0.00,,OVC028,0.00,VWS V14.01,2013-03-17 08:18:00,
2013-03-17 01:19:00,38.2,35.8,29.93,SSW,210,0.0,2.0,91,0.00,,OVC028,0.00,VWS V14.01,2013-03-17 08:19:00,
2013-03-17 01:21:00,38.2,35.8,29.93,SSW,210,0.0,2.0,91,0.00,,OVC028,0.00,VWS V14.01,2013-03-17 08:21:00,
2013-03-17 01:24:00,38.2,35.8,29.93,SSW,212,0.0,4.0,91,0.00,,OVC028,0.00,VWS V14.01,2013-03-17 08:24:00,
2013-03-17 01:25:00,38.2,35.8,29.93,SSW,212,1.0,4.0,91,0.00,,OVC028,0.00,VWS V14.01,2013-03-17 08:25:00,
2013-03-17 01:26:00,38.2,35.8,29.93,SSW,212,2.0,4.0,91,0.00,,OVC028,0.00,VWS V14.01,2013-03-17 08:26:00,
2013-03-17 01:29:00,38.0,35.6,29.93,SSW,212,2.0,2.0,91,0.00,,OVC028,0.00,VWS V14.01,2013-03-17 08:29:00,
2013-03-17 01:30:00,38.0,35.6,29.93,SSW,212,0.0,2.0,91,0.00,,OVC028,0.00,VWS V14.01,2013-03-17 08:30:00,
2013-03-17 01:33:00,38.0,35.6,29.94,SSW,212,0.0,0.0,91,0.00,,OVC028,0.00,VWS V14.01,2013-03-17 08:33:00,
2013-03-17 01:35:00,38.0,35.6,29.94,SSW,212,0.0,0.0,91,0.00,,OVC028,0.00,VWS V14.01,2013-03-17 08:35:00,
2013-03-17 01:38:00,38.2,35.8,29.94,ESE,119,1.0,2.0,91,0.00,,OVC028,0.00,VWS V14.01,2013-03-17 08:38:00,
2013-03-17 01:39:00,38.2,35.8,29.94,ESE,119,0.0,2.0,91,0.00,,OVC028,0.00,VWS V14.01,2013-03-17 08:39:00,
2013-03-17 01:40:00,38.2,35.8,29.94,ESE,119,0.0,2.0,91,0.00,,OVC028,0.00,VWS V14.01,2013-03-17 08:40:00,
2013-03-17 01:41:00,38.2,35.8,29.94,SW,232,0.0,4.0,91,0.00,,OVC028,0.00,VWS V14.01,2013-03-17 08:41:00,
2013-03-17 01:46:00,38.2,35.8,29.94,ESE,123,0.0,3.0,91,0.00,,OVC028,0.00,VWS V14.01,2013-03-17 08:46:00,
2013-03-17 01:47:00,38.2,35.8,29.94,ESE,123,0.0,2.0,91,0.00,,OVC028,0.00,VWS V14.01,2013-03-17 08:47:00,
2013-03-17 01:50:00,38.2,35.8,29.94,ESE,119,0.0,3.0,91,0.00,,OVC028,0.00,VWS V14.01,2013-03-17 08:50:00,
2013-03-17 01:51:00,38.2,35.8,29.94,ESE,119,0.0,3.0,91,0.00,,OVC028,0.00,VWS V14.01,2013-03-17 08:51:00,
2013-03-17 01:52:00,38.2,35.8,29.94,ESE,119,0.0,0.0,91,0.00,,OVC028,0.00,VWS V14.01,2013-03-17 08:52:00,
2013-03-17 01:57:00,38.2,35.8,29.94,SSW,200,0.0,0.0,91,0.00,,OVC028,0.00,VWS V14.01,2013-03-17 08:57:00,
2013-03-17 01:58:00,38.2,35.8,29.94,SSW,200,0.0,0.0,91,0.00,,OVC028,0.00,VWS V14.01,2013-03-17 08:58:00,
2013-03-17 02:01:00,38.2,35.8,29.94,SSW,195,0.0,0.0,91,0.00,,OVC022,0.00,VWS V14.01,2013-03-17 09:01:00,
2013-03-17 02:02:00,38.2,35.8,29.94,SSW,195,0.0,0.0,91,0.00,,OVC022,0.00,VWS V14.01,2013-03-17 09:02:00,
2013-03-17 02:04:00,38.2,35.8,29.94,SSW,193,0.0,3.0,91,0.00,,OVC022,0.00,VWS V14.01,2013-03-17 09:04:00,
2013-03-17 02:07:00,38.2,35.8,29.94,SSW,193,0.0,0.0,91,0.00,,OVC022,0.00,VWS V14.01,2013-03-17 09:07:00,
2013-03-17 02:09:00,38.2,35.8,29.94,SSW,193,0.0,0.0,91,0.00,,OVC022,0.00,VWS V14.01,2013-03-17 09:09:00,
2013-03-17 02:10:00,38.2,35.8,29.94,SSW,193,0.0,0.0,91,0.00,,OVC022,0.00,VWS V14.01,2013-03-17 09:10:00,
2013-03-17 02:11:00,38.2,35.8,29.94,SSW,193,0.0,0.0,91,0.00,,OVC022,0.00,VWS V14.01,2013-03-17 09:11:00,
2013-03-17 02:16:00,38.2,35.8,29.95,SSE,147,2.0,3.0,91,0.00,,OVC022,0.00,VWS V14.01,2013-03-17 09:16:00,
2013-03-17 02:17:00,38.2,35.8,29.95,SSE,147,0.0,3.0,91,0.00,,OVC022,0.00,VWS V14.01,2013-03-17 09:17:00,
2013-03-17 02:19:00,38.2,35.8,29.95,SSE,147,0.0,3.0,91,0.00,,OVC022,0.00,VWS V14.01,2013-03-17 09:19:00,
2013-03-17 02:22:00,38.2,35.8,29.95,SSE,147,0.0,0.0,91,0.00,,OVC022,0.00,VWS V14.01,2013-03-17 09:22:00,
2013-03-17 02:25:00,38.2,35.8,29.95,SSE,147,0.0,0.0,91,0.00,,OVC022,0.00,VWS V14.01,2013-03-17 09:25:00,
2013-03-17 02:29:00,38.2,35.8,29.95,SSE,147,0.0,0.0,91,0.00,,OVC022,0.00,VWS V14.01,2013-03-17 09:29:00,
2013-03-17 02:30:00,38.2,35.8,29.95,SSE,147,0.0,0.0,91,0.00,,OVC022,0.00,VWS V14.01,2013-03-17 09:30:00,
2013-03-17 02:31:00,38.2,35.8,29.96,SSE,147,0.0,0.0,91,0.00,,OVC022,0.00,VWS V14.01,2013-03-17 09:31:00,
2013-03-17 02:35:00,38.2,35.8,29.96,SSE,147,0.0,0.0,91,0.00,,OVC022,0.00,VWS V14.01,2013-03-17 09:35:00,
2013-03-17 02:36:00,38.2,35.8,29.96,SSE,147,0.0,0.0,91,0.00,,OVC022,0.00,VWS V14.01,2013-03-17 09:36:00,
2013-03-17 02:38:00,38.2,35.8,29.96,SSE,147,0.0,0.0,91,0.00,,OVC022,0.00,VWS V14.01,2013-03-17 09:38:00,
2013-03-17 02:40:00,38.2,35.8,29.96,SSE,147,0.0,0.0,91,0.00,,OVC022,0.00,VWS V14.01,2013-03-17 09:40:00,
2013-03-17 02:41:00,38.2,35.8,29.96,SSE,147,0.0,0.0,91,0.00,,OVC022,0.00,VWS V14.01,2013-03-17 09:41:00,
2013-03-17 02:44:00,38.2,35.8,29.96,SSE,147,0.0,0.0,91,0.00,,OVC022,0.00,VWS V14.01,2013-03-17 09:44:00,
2013-03-17 02:46:00,38.2,35.8,29.96,SSE,147,0.0,2.0,91,0.00,,OVC022,0.00,VWS V14.01,2013-03-17 09:46:00,
2013-03-17 02:49:00,38.2,35.8,29.96,SSE,147,1.0,2.0,91,0.00,,OVC022,0.00,VWS V14.01,2013-03-17 09:49:00,
2013-03-17 02:51:00,38.2,35.8,29.96,SSE,155,0.0,2.0,91,0.00,,OVC022,0.00,VWS V14.01,2013-03-17 09:51:00,
2013-03-17 02:52:00,38.2,35.8,29.96,SSW,198,0.0,2.0,91,0.00,,OVC022,0.00,VWS V14.01,2013-03-17 09:52:00,
2013-03-17 02:54:00,38.2,35.8,29.96,SSW,198,0.0,2.0,91,0.00,,OVC022,0.00,VWS V14.01,2013-03-17 09:54:00,
2013-03-17 02:57:00,38.2,35.8,29.96,SSE,150,1.0,3.0,91,0.00,,OVC022,0.00,VWS V14.01,2013-03-17 09:57:00,
2013-03-17 03:00:00,38.2,35.8,29.96,SSE,154,0.0,6.0,91,0.00,,OVC022,0.00,VWS V14.01,2013-03-17 10:00:00,
2013-03-17 03:01:00,38.2,35.8,29.96,SSE,154,0.0,0.0,91,0.00,,OVC020,0.00,VWS V14.01,2013-03-17 10:01:00,
2013-03-17 03:02:00,38.2,35.8,29.96,SSE,154,0.0,0.0,91,0.00,,OVC020,0.00,VWS V14.01,2013-03-17 10:02:00,
2013-03-17 03:04:00,38.2,35.8,29.96,SSE,154,0.0,2.0,91,0.00,,OVC020,0.00,VWS V14.01,2013-03-17 10:04:00,
2013-03-17 03:05:00,38.2,35.8,29.96,SSE,152,2.0,2.0,91,0.00,,OVC020,0.00,VWS V14.01,2013-03-17 10:05:00,
2013-03-17 03:07:00,38.2,35.8,29.96,SSE,152,1.0,2.0,91,0.00,,OVC020,0.00,VWS V14.01,2013-03-17 10:07:00,
2013-03-17 03:08:00,38.2,35.8,29.96,SSE,152,0.0,2.0,91,0.00,,OVC020,0.00,VWS V14.01,2013-03-17 10:08:00,
2013-03-17 03:13:00,38.2,35.8,29.96,SSE,152,0.0,2.0,91,0.00,,OVC020,0.00,VWS V14.01,2013-03-17 10:13:00,
2013-03-17 03:14:00,38.2,35.8,29.96,SSE,152,0.0,2.0,91,0.00,,OVC020,0.00,VWS V14.01,2013-03-17 10:14:00,
2013-03-17 03:15:00,38.2,35.8,29.98,SSE,152,0.0,2.0,91,0.00,,OVC020,0.00,VWS V14.01,2013-03-17 10:15:00,
2013-03-17 03:20:00,38.2,35.8,29.98,SSE,155,1.0,3.0,91,0.00,,OVC020,0.00,VWS V14.01,2013-03-17 10:20:00,
2013-03-17 03:21:00,38.2,35.8,29.98,SSE,155,0.0,3.0,91,0.00,,OVC020,0.00,VWS V14.01,2013-03-17 10:21:00,
2013-03-17 03:22:00,38.2,35.8,29.98,SSE,155,1.0,1.0,91,0.00,,OVC020,0.00,VWS V14.01,2013-03-17 10:22:00,
2013-03-17 03:25:00,38.2,35.8,29.98,SSE,155,0.0,1.0,91,0.00,,OVC020,0.00,VWS V14.01,2013-03-17 10:25:00,
2013-03-17 03:27:00,38.2,35.8,29.98,SSE,157,0.0,0.0,91,0.00,,OVC020,0.00,VWS V14.01,2013-03-17 10:27:00,
2013-03-17 03:30:00,38.2,35.8,29.98,SSE,158,0.0,3.0,91,0.00,,OVC020,0.00,VWS V14.01,2013-03-17 10:30:00,
2013-03-17 03:31:00,38.2,35.8,29.98,SSE,158,0.0,3.0,91,0.00,,OVC020,0.00,VWS V14.01,2013-03-17 10:31:00,
2013-03-17 03:32:00,38.2,35.8,29.98,SSE,158,0.0,0.0,91,0.00,,OVC020,0.00,VWS V14.01,2013-03-17 10:32:00,
2013-03-17 03:36:00,38.2,35.8,29.98,SSE,158,0.0,3.0,91,0.00,,OVC020,0.00,VWS V14.01,2013-03-17 10:36:00,
2013-03-17 03:37:00,38.2,35.8,29.98,SSE,158,0.0,1.0,91,0.00,,OVC020,0.00,VWS V14.01,2013-03-17 10:37:00,
2013-03-17 03:38:00,38.2,35.8,29.98,ESE,123,5.0,5.0,91,0.00,,OVC020,0.00,VWS V14.01,2013-03-17 10:38:00,
2013-03-17 03:40:00,38.2,35.5,29.98,SSE,147,0.0,6.0,90,0.00,,OVC020,0.00,VWS V14.01,2013-03-17 10:40:00,
2013-03-17 03:42:00,38.2,35.5,29.98,SSE,154,0.0,3.0,90,0.00,,OVC020,0.00,VWS V14.01,2013-03-17 10:42:00,
2013-03-17 03:43:00,38.2,35.5,29.98,SSE,154,0.0,3.0,90,0.00,,OVC020,0.00,VWS V14.01,2013-03-17 10:43:00,
2013-03-17 03:45:00,38.2,35.5,29.98,SW,224,2.0,3.0,90,0.00,,OVC020,0.00,VWS V14.01,2013-03-17 10:45:00,
2013-03-17 03:47:00,38.2,35.5,29.98,SW,224,0.0,0.0,90,0.00,,OVC020,0.00,VWS V14.01,2013-03-17 10:47:00,
2013-03-17 03:50:00,38.3,35.6,29.98,SE,136,0.0,2.0,90,0.00,,OVC020,0.00,VWS V14.01,2013-03-17 10:50:00,
2013-03-17 03:51:00,38.3,35.6,29.98,SE,136,0.0,2.0,90,0.00,,OVC020,0.00,VWS V14.01,2013-03-17 10:51:00,
2013-03-17 03:53:00,38.3,35.6,29.98,SE,136,0.0,0.0,90,0.00,,OVC020,0.00,VWS V14.01,2013-03-17 10:53:00,
2013-03-17 03:55:00,38.3,35.6,29.98,SE,136,0.0,1.0,90,0.00,,OVC020,0.00,VWS V14.01,2013-03-17 10:55:00,
2013-03-17 03:59:00,38.3,35.6,29.98,SE,124,1.0,3.0,90,0.00,,OVC020,0.00,VWS V14.01,2013-03-17 10:59:00,
2013-03-17 04:00:00,38.3,35.6,29.98,SE,124,2.0,3.0,90,0.00,,OVC020,0.00,VWS V14.01,2013-03-17 11:00:00,
2013-03-17 04:04:00,38.2,35.5,29.98,SE,144,2.0,4.0,90,0.00,,BKN024,0.00,VWS V14.01,2013-03-17 11:04:00,
2013-03-17 04:05:00,38.2,35.5,29.98,SSW,208,0.0,4.0,90,0.00,,BKN024,0.00,VWS V14.01,2013-03-17 11:05:00,
2013-03-17 04:06:00,38.2,35.5,29.98,ESE,113,0.0,7.0,90,0.00,,BKN024,0.00,VWS V14.01,2013-03-17 11:06:00,
2013-03-17 04:08:00,38.2,35.5,29.98,ESE,116,0.0,3.0,90,0.00,,BKN024,0.00,VWS V14.01,2013-03-17 11:08:00,
2013-03-17 04:10:00,38.2,35.5,29.98,ESE,112,1.0,3.0,90,0.00,,BKN024,0.00,VWS V14.01,2013-03-17 11:10:00,
2013-03-17 04:11:00,38.2,35.5,29.98,ESE,123,0.0,3.0,90,0.00,,BKN024,0.00,VWS V14.01,2013-03-17 11:11:00,
2013-03-17 04:12:00,38.2,35.5,29.98,ESE,123,0.0,0.0,90,0.00,,BKN024,0.00,VWS V14.01,2013-03-17 11:12:00,
2013-03-17 04:15:00,38.2,35.5,29.98,ESE,123,1.0,1.0,90,0.00,,BKN024,0.00,VWS V14.01,2013-03-17 11:15:00,
2013-03-17 04:16:00,38.3,35.6,29.99,SE,126,1.0,3.0,90,0.00,,BKN024,0.00,VWS V14.01,2013-03-17 11:16:00,
2013-03-17 04:19:00,38.2,35.5,29.99,ESE,117,0.0,3.0,90,0.00,,BKN024,0.00,VWS V14.01,2013-03-17 11:19:00,
2013-03-17 04:21:00,38.2,35.2,29.99,ESE,117,0.0,3.0,89,0.00,,BKN024,0.00,VWS V14.01,2013-03-17 11:21:00,
2013-03-17 04:23:00,38.3,35.6,29.99,ESE,110,1.0,1.0,90,0.00,,BKN024,0.00,VWS V14.01,2013-03-17 11:23:00,
2013-03-17 04:24:00,38.3,35.6,29.99,ESE,110,0.0,1.0,90,0.00,,BKN024,0.00,VWS V14.01,2013-03-17 11:24:00,
2013-03-17 04:26:00,38.3,35.6,29.99,ESE,112,0.0,1.0,90,0.00,,BKN024,0.00,VWS V14.01,2013-03-17 11:26:00,
2013-03-17 04:27:00,38.3,35.6,29.99,ESE,112,0.0,0.0,90,0.00,,BKN024,0.00,VWS V14.01,2013-03-17 11:27:00,
2013-03-17 04:31:00,38.3,35.3,29.99,South,186,2.0,3.0,89,0.00,,BKN024,0.00,VWS V14.01,2013-03-17 11:31:00,
2013-03-17 04:32:00,38.3,35.3,29.99,South,185,1.0,2.0,89,0.00,,BKN024,0.00,VWS V14.01,2013-03-17 11:32:00,
2013-03-17 04:35:00,38.3,35.6,29.99,South,185,0.0,2.0,90,0.00,,BKN024,0.00,VWS V14.01,2013-03-17 11:35:00,
2013-03-17 04:37:00,38.3,35.3,29.99,South,191,2.0,3.0,89,0.00,,BKN024,0.00,VWS V14.01,2013-03-17 11:37:00,
2013-03-17 04:38:00,38.3,35.3,29.99,South,191,0.0,3.0,89,0.00,,BKN024,0.00,VWS V14.01,2013-03-17 11:38:00,
2013-03-17 04:40:00,38.3,35.6,29.99,South,191,0.0,3.0,90,0.00,,BKN024,0.00,VWS V14.01,2013-03-17 11:40:00,
2013-03-17 04:44:00,38.3,35.6,29.99,South,191,0.0,2.0,90,0.00,,BKN024,0.00,VWS V14.01,2013-03-17 11:44:00,
2013-03-17 04:45:00,38.3,35.6,29.99,South,191,2.0,2.0,90,0.00,,BKN024,0.00,VWS V14.01,2013-03-17 11:45:00,
2013-03-17 04:46:00,38.3,35.6,30.00,South,191,1.0,2.0,90,0.00,,BKN024,0.00,VWS V14.01,2013-03-17 11:46:00,
2013-03-17 04:50:00,38.3,35.6,30.00,South,191,0.0,1.0,90,0.00,,BKN024,0.00,VWS V14.01,2013-03-17 11:50:00,
2013-03-17 04:51:00,38.3,35.6,30.00,South,191,0.0,0.0,90,0.00,,BKN024,0.00,VWS V14.01,2013-03-17 11:51:00,
2013-03-17 04:52:00,38.3,35.6,30.00,South,191,0.0,0.0,90,0.00,,BKN024,0.00,VWS V14.01,2013-03-17 11:52:00,
2013-03-17 04:56:00,38.3,35.6,30.00,South,191,1.0,2.0,90,0.00,,BKN024,0.00,VWS V14.01,2013-03-17 11:56:00,
2013-03-17 04:57:00,38.3,35.6,30.00,South,191,2.0,2.0,90,0.00,,BKN024,0.00,VWS V14.01,2013-03-17 11:57:00,
2013-03-17 05:01:00,38.3,35.6,30.00,South,191,0.0,3.0,90,0.00,,BKN024,0.00,VWS V14.01,2013-03-17 12:01:00,
2013-03-17 05:03:00,38.3,35.6,30.00,South,191,0.0,2.0,90,0.00,,BKN024,0.00,VWS V14.01,2013-03-17 12:03:00,
2013-03-17 05:08:00,38.3,35.6,30.00,South,191,0.0,0.0,90,0.00,,BKN024,0.00,VWS V14.01,2013-03-17 12:08:00,
2013-03-17 05:11:00,38.3,35.6,30.00,South,191,0.0,0.0,90,0.00,,BKN024,0.00,VWS V14.01,2013-03-17 12:11:00,
2013-03-17 05:13:00,38.3,35.6,30.00,South,191,0.0,0.0,90,0.00,,BKN024,0.00,VWS V14.01,2013-03-17 12:13:00,
2013-03-17 05:15:00,38.3,35.6,30.00,South,191,0.0,0.0,90,0.00,,BKN024,0.00,VWS V14.01,2013-03-17 12:15:00,
2013-03-17 05:17:00,38.2,35.5,30.00,South,191,0.0,0.0,90,0.00,,BKN024,0.00,VWS V14.01,2013-03-17 12:17:00,
2013-03-17 05:19:00,38.2,35.5,30.00,South,191,0.0,1.0,90,0.00,,BKN024,0.00,VWS V14.01,2013-03-17 12:19:00,
2013-03-17 05:21:00,38.2,35.5,30.00,South,191,0.0,1.0,90,0.00,,BKN024,0.00,VWS V14.01,2013-03-17 12:21:00,
2013-03-17 05:22:00,38.2,35.5,30.00,South,191,0.0,0.0,90,0.00,,BKN024,0.00,VWS V14.01,2013-03-17 12:22:00,
2013-03-17 05:25:00,38.2,35.5,30.00,WSW,237,1.0,5.0,90,0.00,,BKN024,0.00,VWS V14.01,2013-03-17 12:25:00,
2013-03-17 05:26:00,38.2,35.5,30.00,WSW,237,1.0,5.0,90,0.00,,BKN024,0.00,VWS V14.01,2013-03-17 12:26:00,
2013-03-17 05:27:00,38.2,35.5,30.00,WSW,237,0.0,1.0,90,0.00,,BKN024,0.00,VWS V14.01,2013-03-17 12:27:00,
2013-03-17 05:31:00,38.2,35.5,30.01,SW,230,1.0,1.0,90,0.00,,BKN024,0.00,VWS V14.01,2013-03-17 12:31:00,
2013-03-17 05:33:00,38.2,35.5,30.01,WSW,237,0.0,2.0,90,0.00,,BKN024,0.00,VWS V14.01,2013-03-17 12:33:00,
2013-03-17 05:34:00,38.2,35.5,30.01,SE,131,1.0,3.0,90,0.00,,BKN024,0.00,VWS V14.01,2013-03-17 12:34:00,
2013-03-17 05:36:00,38.2,35.5,30.01,SE,131,0.0,3.0,90,0.00,,BKN024,0.00,VWS V14.01,2013-03-17 12:36:00,
2013-03-17 05:38:00,38.2,35.5,30.01,SE,130,1.0,2.0,90,0.00,,BKN024,0.00,VWS V14.01,2013-03-17 12:38:00,
2013-03-17 05:39:00,38.2,35.5,30.01,SE,130,0.0,2.0,90,0.00,,BKN024,0.00,VWS V14.01,2013-03-17 12:39:00,
2013-03-17 05:40:00,38.2,35.5,30.01,SE,130,0.0,2.0,90,0.00,,BKN024,0.00,VWS V14.01,2013-03-17 12:40:00,
2013-03-17 05:44:00,38.2,35.5,30.01,ESE,120,0.0,4.0,90,0.00,,BKN024,0.00,VWS V14.01,2013-03-17 12:44:00,
2013-03-17 05:45:00,38.2,35.5,30.01,ESE,120,0.0,4.0,90,0.00,,BKN024,0.00,VWS V14.01,2013-03-17 12:45:00,
2013-03-17 05:46:00,38.2,35.5,30.02,ESE,120,0.0,4.0,90,0.00,,BKN024,0.00,VWS V14.01,2013-03-17 12:46:00,
2013-03-17 05:47:00,38.2,35.5,30.02,ESE,120,0.0,0.0,90,0.00,,BKN024,0.00,VWS V14.01,2013-03-17 12:47:00,
2013-03-17 05:51:00,38.2,35.5,30.02,SSW,203,1.0,3.0,90,0.00,,BKN024,0.00,VWS V14.01,2013-03-17 12:51:00,
2013-03-17 05:52:00,38.2,35.5,30.02,SSW,200,1.0,1.0,90,0.00,,BKN024,0.00,VWS V14.01,2013-03-17 12:52:00,
2013-03-17 05:55:00,38.2,35.5,30.02,SSW,200,0.0,2.0,90,0.00,,BKN024,0.00,VWS V14.01,2013-03-17 12:55:00,
2013-03-17 05:57:00,38.2,35.5,30.02,SSW,200,0.0,0.0,90,0.00,,BKN024,0.00,VWS V14.01,2013-03-17 12:57:00,
2013-03-17 06:00:00,38.2,35.5,30.02,SE,144,0.0,5.0,90,0.00,,BKN024,0.00,VWS V14.01,2013-03-17 13:00:00,
2013-03-17 06:01:00,38.2,35.5,30.02,SE,144,0.0,5.0,90,0.00,,OVC021,0.00,VWS V14.01,2013-03-17 13:01:00,
2013-03-17 06:04:00,38.2,35.5,30.02,SSE,161,0.0,3.0,90,0.00,,OVC021,0.00,VWS V14.01,2013-03-17 13:04:00,
2013-03-17 06:06:00,38.2,35.5,30.02,SSE,162,0.0,1.0,90,0.00,,OVC021,0.00,VWS V14.01,2013-03-17 13:06:00,
2013-03-17 06:07:00,38.0,35.3,30.02,SSE,162,0.0,1.0,90,0.00,,OVC021,0.00,VWS V14.01,2013-03-17 13:07:00,
2013-03-17 06:09:00,38.0,35.3,30.02,SSE,162,1.0,1.0,90,0.00,,OVC021,0.00,VWS V14.01,2013-03-17 13:09:00,
2013-03-17 06:10:00,38.0,35.3,30.02,SSE,162,0.0,2.0,90,0.00,,OVC021,0.00,VWS V14.01,2013-03-17 13:10:00,
2013-03-17 06:12:00,38.0,35.3,30.02,SSW,210,0.0,4.0,90,0.00,,OVC021,0.00,VWS V14.01,2013-03-17 13:12:00,
2013-03-17 06:16:00,38.0,35.3,30.03,ESE,106,2.0,4.0,90,0.00,,OVC021,0.00,VWS V14.01,2013-03-17 13:16:00,
2013-03-17 06:18:00,38.0,35.3,30.03,SSW,205,3.0,3.0,90,0.00,,OVC021,0.00,VWS V14.01,2013-03-17 13:18:00,
2013-03-17 06:20:00,38.0,35.3,30.03,South,189,0.0,3.0,90,0.00,,OVC021,0.00,VWS V14.01,2013-03-17 13:20:00,
2013-03-17 06:22:00,38.0,35.3,30.03,South,189,0.0,0.0,90,0.00,,OVC021,0.00,VWS V14.01,2013-03-17 13:22:00,
2013-03-17 06:23:00,38.0,35.3,30.03,SSE,150,1.0,2.0,90,0.00,,OVC021,0.00,VWS V14.01,2013-03-17 13:23:00,
2013-03-17 06:25:00,38.0,35.3,30.03,SSE,155,1.0,3.0,90,0.00,,OVC021,0.00,VWS V14.01,2013-03-17 13:25:00,
2013-03-17 06:26:00,38.0,35.3,30.03,SSE,155,0.0,3.0,90,0.00,,OVC021,0.00,VWS V14.01,2013-03-17 13:26:00,
2013-03-17 06:28:00,38.0,35.3,30.03,SSE,155,0.0,0.0,90,0.00,,OVC021,0.00,VWS V14.01,2013-03-17 13:28:00,
2013-03-17 06:31:00,37.9,35.2,30.04,SSE,155,1.0,3.0,90,0.00,,OVC021,0.00,VWS V14.01,2013-03-17 13:31:00,
2013-03-17 06:33:00,37.9,35.2,30.04,SSE,155,0.0,1.0,90,0.00,,OVC021,0.00,VWS V14.01,2013-03-17 13:33:00,
2013-03-17 06:34:00,37.9,35.2,30.04,SSE,155,2.0,3.0,90,0.00,,OVC021,0.00,VWS V14.01,2013-03-17 13:34:00,
2013-03-17 06:36:00,37.9,35.2,30.04,SSE,155,2.0,3.0,90,0.00,,OVC021,0.00,VWS V14.01,2013-03-17 13:36:00,
2013-03-17 06:38:00,37.9,35.2,30.04,SSE,155,0.0,3.0,90,0.00,,OVC021,0.00,VWS V14.01,2013-03-17 13:38:00,
2013-03-17 06:39:00,37.9,35.2,30.04,SSE,155,0.0,3.0,90,0.00,,OVC021,0.00,VWS V14.01,2013-03-17 13:39:00,
2013-03-17 06:41:00,37.9,35.2,30.04,SSE,157,0.0,3.0,90,0.00,,OVC021,0.00,VWS V14.01,2013-03-17 13:41:00,
2013-03-17 06:44:00,37.9,35.0,30.04,SSE,157,0.0,1.0,89,0.00,,OVC021,0.00,VWS V14.01,2013-03-17 13:44:00,
2013-03-17 06:47:00,37.9,35.0,30.04,SE,143,2.0,6.0,89,0.00,,OVC021,0.00,VWS V14.01,2013-03-17 13:47:00,
2013-03-17 06:48:00,37.9,35.0,30.04,SE,143,0.0,6.0,89,0.00,,OVC021,0.00,VWS V14.01,2013-03-17 13:48:00,
2013-03-17 06:49:00,37.9,35.0,30.04,SW,215,6.0,6.0,89,0.00,,OVC021,0.00,VWS V14.01,2013-03-17 13:49:00,
2013-03-17 06:51:00,37.9,35.0,30.04,SW,215,0.0,6.0,89,0.00,,OVC021,0.00,VWS V14.01,2013-03-17 13:51:00,
2013-03-17 06:55:00,37.8,34.9,30.04,SW,215,1.0,2.0,89,0.00,,OVC021,0.00,VWS V14.01,2013-03-17 13:55:00,
2013-03-17 06:56:00,37.8,34.9,30.04,SW,215,0.0,2.0,89,0.00,,OVC021,0.00,VWS V14.01,2013-03-17 13:56:00,
2013-03-17 06:57:00,37.8,34.9,30.04,SW,215,0.0,0.0,89,0.00,,OVC021,0.00,VWS V14.01,2013-03-17 13:57:00,
2013-03-17 06:58:00,37.8,34.9,30.04,SSW,200,0.0,3.0,89,0.00,,OVC021,0.00,VWS V14.01,2013-03-17 13:58:00,
2013-03-17 07:02:00,37.8,34.9,30.04,South,179,0.0,1.0,89,0.00,,OVC023,0.00,VWS V14.01,2013-03-17 14:02:00,
2013-03-17 07:04:00,37.8,34.9,30.04,South,179,0.0,1.0,89,0.00,,OVC023,0.00,VWS V14.01,2013-03-17 14:04:00,
2013-03-17 07:08:00,37.8,34.9,30.04,South,179,2.0,3.0,89,0.00,,OVC023,0.00,VWS V14.01,2013-03-17 14:08:00,
2013-03-17 07:10:00,37.8,34.9,30.04,South,179,0.0,3.0,89,0.00,,OVC023,0.00,VWS V14.01,2013-03-17 14:10:00,
2013-03-17 07:11:00,37.8,34.9,30.04,South,179,2.0,3.0,89,0.00,,OVC023,0.00,VWS V14.01,2013-03-17 14:11:00,
2013-03-17 07:13:00,37.8,34.9,30.04,South,179,1.0,2.0,89,0.00,,OVC023,0.00,VWS V14.01,2013-03-17 14:13:00,
2013-03-17 07:16:00,37.8,34.6,30.05,SSW,205,3.0,5.0,88,0.00,,OVC023,0.00,VWS V14.01,2013-03-17 14:16:00,
2013-03-17 07:17:00,37.8,34.6,30.05,SSW,203,0.0,3.0,88,0.00,,OVC023,0.00,VWS V14.01,2013-03-17 14:17:00,
2013-03-17 07:18:00,37.6,34.4,30.05,SSW,203,1.0,3.0,88,0.00,,OVC023,0.00,VWS V14.01,2013-03-17 14:18:00,
2013-03-17 07:22:00,37.6,34.4,30.05,SSE,152,0.0,0.0,88,0.00,,OVC023,0.00,VWS V14.01,2013-03-17 14:22:00,
2013-03-17 07:23:00,37.6,34.4,30.05,SSE,152,0.0,0.0,88,0.00,,OVC023,0.00,VWS V14.01,2013-03-17 14:23:00,
2013-03-17 07:24:00,37.6,34.4,30.05,SSE,152,0.0,3.0,88,0.00,,OVC023,0.00,VWS V14.01,2013-03-17 14:24:00,
2013-03-17 07:27:00,37.6,34.4,30.05,South,171,0.0,3.0,88,0.00,,OVC023,0.00,VWS V14.01,2013-03-17 14:27:00,
2013-03-17 07:28:00,37.6,34.4,30.05,South,171,0.0,3.0,88,0.00,,OVC023,0.00,VWS V14.01,2013-03-17 14:28:00,
2013-03-17 07:31:00,37.6,34.1,30.05,South,171,1.0,1.0,87,0.00,,OVC023,0.00,VWS V14.01,2013-03-17 14:31:00,
2013-03-17 07:33:00,37.6,34.1,30.05,South,171,3.0,3.0,87,0.00,,OVC023,0.00,VWS V14.01,2013-03-17 14:33:00,
2013-03-17 07:34:00,37.6,34.1,30.05,South,171,1.0,3.0,87,0.00,,OVC023,0.00,VWS V14.01,2013-03-17 14:34:00,
2013-03-17 07:37:00,37.6,34.1,30.05,SE,130,3.0,5.0,87,0.00,,OVC023,0.00,VWS V14.01,2013-03-17 14:37:00,
2013-03-17 07:39:00,37.6,34.1,30.05,SE,141,0.0,5.0,87,0.00,,OVC023,0.00,VWS V14.01,2013-03-17 14:39:00,
2013-03-17 07:41:00,37.5,34.0,30.05,SSW,205,0.0,5.0,87,0.00,,OVC023,0.00,VWS V14.01,2013-03-17 14:41:00,
2013-03-17 07:43:00,37.5,34.0,30.05,SSE,160,1.0,4.0,87,0.00,,OVC023,0.00,VWS V14.01,2013-03-17 14:43:00,
2013-03-17 07:45:00,37.5,34.0,30.06,SSW,198,3.0,4.0,87,0.00,,OVC023,0.00,VWS V14.01,2013-03-17 14:45:00,
2013-03-17 07:46:00,37.5,34.0,30.06,SW,223,2.0,5.0,87,0.00,,OVC023,0.00,VWS V14.01,2013-03-17 14:46:00,
2013-03-17 07:47:00,37.5,34.0,30.06,SW,223,0.0,2.0,87,0.00,,OVC023,0.00,VWS V14.01,2013-03-17 14:47:00,
2013-03-17 07:50:00,37.6,34.1,30.06,SSE,168,0.0,3.0,87,0.00,,OVC023,0.00,VWS V14.01,2013-03-17 14:50:00,
2013-03-17 07:52:00,37.5,34.0,30.06,WSW,237,2.0,6.0,87,0.00,,OVC023,0.00,VWS V14.01,2013-03-17 14:52:00,
2013-03-17 07:56:00,37.5,34.0,30.06,South,174,0.0,6.0,87,0.00,,OVC023,0.00,VWS V14.01,2013-03-17 14:56:00,
2013-03-17 07:57:00,37.5,34.0,30.06,SSE,167,2.0,2.0,87,0.00,,OVC023,0.00,VWS V14.01,2013-03-17 14:57:00,
2013-03-17 07:59:00,37.5,34.0,30.06,South,174,1.0,2.0,87,0.00,,OVC023,0.00,VWS V14.01,2013-03-17 14:59:00,
2013-03-17 08:00:00,37.5,34.0,30.06,South,174,0.0,2.0,87,0.00,,OVC023,0.00,VWS V14.01,2013-03-17 15:00:00,
2013-03-17 08:04:00,37.5,34.0,30.07,WNW,288,1.0,7.0,87,0.00,,BKN100,0.00,VWS V14.01,2013-03-17 15:04:00,
2013-03-17 08:05:00,37.5,34.0,30.07,South,185,2.0,7.0,87,0.00,,BKN100,0.00,VWS V14.01,2013-03-17 15:05:00,
2013-03-17 08:06:00,37.5,34.0,30.07,SSW,206,2.0,7.0,87,0.00,,BKN100,0.00,VWS V14.01,2013-03-17 15:06:00,
2013-03-17 08:10:00,37.5,34.0,30.07,SSW,209,2.0,5.0,87,0.00,,BKN100,0.00,VWS V14.01,2013-03-17 15:10:00,
2013-03-17 08:11:00,37.5,34.0,30.07,ESE,104,0.0,5.0,87,0.00,,BKN100,0.00,VWS V14.01,2013-03-17 15:11:00,
2013-03-17 08:13:00,37.5,34.0,30.07,SSE,147,0.0,2.0,87,0.00,,BKN100,0.00,VWS V14.01,2013-03-17 15:13:00,
2013-03-17 08:15:00,37.6,34.1,30.08,SSE,147,0.0,2.0,87,0.00,,BKN100,0.00,VWS V14.01,2013-03-17 15:15:00,
2013-03-17 08:18:00,37.6,34.1,30.08,SSE,147,0.0,0.0,87,0.00,,BKN100,0.00,VWS V14.01,2013-03-17 15:18:00,
2013-03-17 08:20:00,37.6,34.1,30.08,SSE,165,0.0,2.0,87,0.00,,BKN100,0.00,VWS V14.01,2013-03-17 15:20:00,
2013-03-17 08:21:00,37.6,34.1,30.08,SSE,165,0.0,2.0,87,0.00,,BKN100,0.00,VWS V14.01,2013-03-17 15:21:00,
2013-03-17 08:24:00,37.6,34.1,30.08,SSE,165,0.0,0.0,87,0.00,,BKN100,0.00,VWS V14.01,2013-03-17 15:24:00,
2013-03-17 08:26:00,37.6,34.1,30.08,SSE,162,0.0,1.0,87,0.00,,BKN100,0.00,VWS V14.01,2013-03-17 15:26:00,
2013-03-17 08:28:00,37.6,34.1,30.08,SSE,162,0.0,2.0,87,0.00,,BKN100,0.00,VWS V14.01,2013-03-17 15:28:00,
2013-03-17 08:29:00,37.6,34.1,30.08,SSE,164,1.0,4.0,87,0.00,,BKN100,0.00,VWS V14.01,2013-03-17 15:29:00,
2013-03-17 08:30:00,37.6,34.1,30.08,SSE,164,1.0,4.0,87,0.00,,BKN100,0.00,VWS V14.01,2013-03-17 15:30:00,
2013-03-17 08:31:00,37.6,34.1,30.08,South,175,2.0,3.0,87,0.00,,BKN100,0.00,VWS V14.01,2013-03-17 15:31:00,
2013-03-17 08:37:00,37.6,34.1,30.08,WSW,237,5.0,6.0,87,0.00,,BKN100,0.00,VWS V14.01,2013-03-17 15:37:00,
2013-03-17 08:38:00,37.6,34.1,30.08,SSW,193,2.0,6.0,87,0.00,,BKN100,0.00,VWS V14.01,2013-03-17 15:38:00,
2013-03-17 08:39:00,37.6,34.1,30.08,SSW,202,2.0,6.0,87,0.00,,BKN100,0.00,VWS V14.01,2013-03-17 15:39:00,
2013-03-17 08:41:00,37.6,34.1,30.08,SSW,202,5.0,6.0,87,0.00,,BKN100,0.00,VWS V14.01,2013-03-17 15:41:00,
2013-03-17 08:46:00,37.8,34.3,30.09,SE,141,1.0,6.0,87,0.00,,BKN100,0.00,VWS V14.01,2013-03-17 15:46:00,
2013-03-17 08:49:00,37.8,34.0,30.09,South,182,1.0,6.0,86,0.00,,BKN100,0.00,VWS V14.01,2013-03-17 15:49:00,
2013-03-17 08:52:00,37.8,34.0,30.09,South,174,2.0,5.0,86,0.00,,BKN100,0.00,VWS V14.01,2013-03-17 15:52:00,
2013-03-17 08:54:00,37.8,34.0,30.09,SSW,213,5.0,6.0,86,0.00,,BKN100,0.00,VWS V14.01,2013-03-17 15:54:00,
2013-03-17 08:56:00,37.9,34.1,30.09,WSW,241,1.0,8.0,86,0.00,,BKN100,0.00,VWS V14.01,2013-03-17 15:56:00,
2013-03-17 08:57:00,37.9,34.1,30.09,WSW,241,0.0,1.0,86,0.00,,BKN100,0.00,VWS V14.01,2013-03-17 15:57:00,
2013-03-17 09:01:00,37.9,34.1,30.10,SSW,198,0.0,4.0,86,0.00,,BKN100,0.00,VWS V14.01,2013-03-17 16:01:00,
2013-03-17 09:03:00,37.9,34.1,30.10,SSW,198,3.0,3.0,86,0.00,,BKN100,0.00,VWS V14.01,2013-03-17 16:03:00,
2013-03-17 09:04:00,37.9,34.1,30.10,SSW,200,1.0,3.0,86,0.00,,BKN100,0.00,VWS V14.01,2013-03-17 16:04:00,
2013-03-17 09:06:00,38.0,34.2,30.10,SW,217,2.0,5.0,86,0.00,,BKN100,0.00,VWS V14.01,2013-03-17 16:06:00,
2013-03-17 09:08:00,37.9,34.1,30.10,SW,217,1.0,5.0,86,0.00,,BKN100,0.00,VWS V14.01,2013-03-17 16:08:00,
2013-03-17 09:11:00,38.0,34.2,30.10,SW,219,1.0,6.0,86,0.00,,BKN100,0.00,VWS V14.01,2013-03-17 16:11:00,
2013-03-17 09:14:00,38.0,34.2,30.10,SW,224,3.0,5.0,86,0.00,,BKN100,0.00,VWS V14.01,2013-03-17 16:14:00,
2013-03-17 09:16:00,38.2,34.4,30.10,SW,224,2.0,3.0,86,0.00,,BKN100,0.00,VWS V14.01,2013-03-17 16:16:00,
2013-03-17 09:19:00,38.2,34.4,30.10,SSE,155,1.0,8.0,86,0.00,,BKN100,0.00,VWS V14.01,2013-03-17 16:19:00,
2013-03-17 09:23:00,38.2,34.4,30.10,SSW,198,0.0,3.0,86,0.00,,BKN100,0.00,VWS V14.01,2013-03-17 16:23:00,
2013-03-17 09:26:00,38.2,34.1,30.10,SW,232,1.0,5.0,85,0.00,,BKN100,0.00,VWS V14.01,2013-03-17 16:26:00,
2013-03-17 09:28:00,38.2,34.4,30.10,SW,232,2.0,2.0,86,0.00,,BKN100,0.00,VWS V14.01,2013-03-17 16:28:00,
2013-03-17 09:29:00,38.2,34.4,30.10,SW,232,2.0,2.0,86,0.00,,BKN100,0.00,VWS V14.01,2013-03-17 16:29:00,
2013-03-17 09:31:00,38.3,34.5,30.11,SSW,193,2.0,3.0,86,0.00,,BKN100,0.00,VWS V14.01,2013-03-17 16:31:00,
2013-03-17 09:33:00,38.3,34.5,30.11,SW,216,4.0,6.0,86,0.00,,BKN100,0.00,VWS V14.01,2013-03-17 16:33:00,
2013-03-17 09:34:00,38.3,34.5,30.11,SW,222,6.0,6.0,86,0.00,,BKN100,0.00,VWS V14.01,2013-03-17 16:34:00,
2013-03-17 09:39:00,38.3,34.2,30.11,SW,219,5.0,7.0,85,0.00,,BKN100,0.00,VWS V14.01,2013-03-17 16:39:00,
2013-03-17 09:41:00,38.3,34.2,30.11,SW,216,0.0,7.0,85,0.00,,BKN100,0.00,VWS V14.01,2013-03-17 16:41:00,
2013-03-17 09:43:00,38.5,34.4,30.11,SW,216,2.0,3.0,85,0.00,,BKN100,0.00,VWS V14.01,2013-03-17 16:43:00,
2013-03-17 09:46:00,38.5,34.4,30.11,South,186,6.0,11.0,85,0.00,,BKN100,0.00,VWS V14.01,2013-03-17 16:46:00,
2013-03-17 09:48:00,38.5,34.1,30.11,SSW,193,5.0,6.0,84,0.00,,BKN100,0.00,VWS V14.01,2013-03-17 16:48:00,
2013-03-17 09:49:00,38.5,34.1,30.11,WSW,243,1.0,7.0,84,0.00,,BKN100,0.00,VWS V14.01,2013-03-17 16:49:00,
2013-03-17 09:51:00,38.6,34.5,30.11,WSW,239,1.0,7.0,85,0.00,,BKN100,0.00,VWS V14.01,2013-03-17 16:51:00,
2013-03-17 09:54:00,38.6,34.5,30.11,SSW,195,2.0,6.0,85,0.00,,BKN100,0.00,VWS V14.01,2013-03-17 16:54:00,
2013-03-17 09:56:00,38.8,34.7,30.11,SSW,195,0.0,0.0,85,0.00,,BKN100,0.00,VWS V14.01,2013-03-17 16:56:00,
2013-03-17 09:57:00,38.8,34.7,30.11,SSW,195,0.0,3.0,85,0.00,,BKN100,0.00,VWS V14.01,2013-03-17 16:57:00,
2013-03-17 10:00:00,38.9,34.8,30.12,SE,126,2.0,6.0,85,0.00,,OVC085,0.00,VWS V14.01,2013-03-17 17:00:00,
2013-03-17 10:01:00,38.9,34.8,30.12,SE,130,2.0,6.0,85,0.00,,OVC085,0.00,VWS V14.01,2013-03-17 17:01:00,
2013-03-17 10:04:00,38.9,34.5,30.12,South,175,2.0,7.0,84,0.00,,OVC085,0.00,VWS V14.01,2013-03-17 17:04:00,
2013-03-17 10:05:00,38.9,34.5,30.12,SSW,196,6.0,7.0,84,0.00,,OVC085,0.00,VWS V14.01,2013-03-17 17:05:00,
2013-03-17 10:07:00,38.9,34.2,30.12,East,97,1.0,7.0,83,0.00,,OVC085,0.00,VWS V14.01,2013-03-17 17:07:00,
2013-03-17 10:08:00,38.9,34.2,30.12,SSE,157,1.0,7.0,83,0.00,,OVC085,0.00,VWS V14.01,2013-03-17 17:08:00,
2013-03-17 10:09:00,38.9,34.5,30.12,SSW,203,2.0,7.0,84,0.00,,OVC085,0.00,VWS V14.01,2013-03-17 17:09:00,
2013-03-17 10:11:00,38.9,34.2,30.12,SSW,206,0.0,7.0,83,0.00,,OVC085,0.00,VWS V14.01,2013-03-17 17:11:00,
2013-03-17 10:13:00,38.9,34.5,30.12,SSW,206,2.0,3.0,84,0.00,,OVC085,0.00,VWS V14.01,2013-03-17 17:13:00,
2013-03-17 10:14:00,38.9,34.5,30.12,SSW,209,3.0,5.0,84,0.00,,OVC085,0.00,VWS V14.01,2013-03-17 17:14:00,
2013-03-17 10:17:00,39.1,34.4,30.12,SSW,213,0.0,8.0,83,0.00,,OVC085,0.00,VWS V14.01,2013-03-17 17:17:00,
2013-03-17 10:19:00,39.1,34.4,30.12,SSW,213,3.0,8.0,83,0.00,,OVC085,0.00,VWS V14.01,2013-03-17 17:19:00,
2013-03-17 10:20:00,39.1,34.7,30.12,SSW,213,1.0,8.0,84,0.00,,OVC085,0.00,VWS V14.01,2013-03-17 17:20:00,
2013-03-17 10:21:00,39.1,34.7,30.12,SW,215,7.0,8.0,84,0.00,,OVC085,0.00,VWS V14.01,2013-03-17 17:21:00,
2013-03-17 10:25:00,39.3,34.9,30.12,SSW,206,2.0,7.0,84,0.00,,OVC085,0.00,VWS V14.01,2013-03-17 17:25:00,
2013-03-17 10:26:00,39.5,35.1,30.12,SSW,212,2.0,7.0,84,0.00,,OVC085,0.00,VWS V14.01,2013-03-17 17:26:00,
2013-03-17 10:27:00,39.5,34.8,30.12,SSW,193,1.0,6.0,83,0.00,,OVC085,0.00,VWS V14.01,2013-03-17 17:27:00,
2013-03-17 10:30:00,39.6,34.6,30.12,South,186,3.0,11.0,82,0.00,,OVC085,0.00,VWS V14.01,2013-03-17 17:30:00,
2013-03-17 10:31:00,39.6,34.6,30.12,South,176,3.0,7.0,82,0.00,,OVC085,0.00,VWS V14.01,2013-03-17 17:31:00,
2013-03-17 10:33:00,39.8,34.5,30.12,South,176,1.0,2.0,81,0.00,,OVC085,0.00,VWS V14.01,2013-03-17 17:33:00,
2013-03-17 10:35:00,39.8,34.5,30.12,SW,224,7.0,7.0,81,0.00,,OVC085,0.00,VWS V14.01,2013-03-17 17:35:00,
2013-03-17 10:37:00,39.9,34.5,30.12,SW,226,1.0,4.0,81,0.00,,OVC085,0.00,VWS V14.01,2013-03-17 17:37:00,
2013-03-17 10:38:00,39.9,34.5,30.12,SW,226,0.0,4.0,81,0.00,,OVC085,0.00,VWS V14.01,2013-03-17 17:38:00,
2013-03-17 10:43:00,40.1,35.1,30.12,SW,233,6.0,11.0,82,0.00,,OVC085,0.00,VWS V14.01,2013-03-17 17:43:00,
2013-03-17 10:44:00,40.2,34.8,30.12,WSW,251,1.0,11.0,81,0.00,,OVC085,0.00,VWS V14.01,2013-03-17 17:44:00,
2013-03-17 10:47:00,40.3,34.9,30.12,South,188,2.0,3.0,81,0.00,,OVC085,0.00,VWS V14.01,2013-03-17 17:47:00,
2013-03-17 10:48:00,40.3,34.9,30.12,WSW,237,5.0,7.0,81,0.00,,OVC085,0.00,VWS V14.01,2013-03-17 17:48:00,
2013-03-17 10:49:00,40.3,34.9,30.12,SW,234,7.0,10.0,81,0.00,,OVC085,0.00,VWS V14.01,2013-03-17 17:49:00,
2013-03-17 10:51:00,40.3,34.3,30.12,SW,215,5.0,7.0,79,0.00,,OVC085,0.00,VWS V14.01,2013-03-17 17:51:00,
2013-03-17 10:54:00,40.5,34.5,30.12,South,182,3.0,7.0,79,0.00,,OVC085,0.00,VWS V14.01,2013-03-17 17:54:00,
2013-03-17 10:55:00,40.5,34.5,30.12,SSW,213,6.0,14.0,79,0.00,,OVC085,0.00,VWS V14.01,2013-03-17 17:55:00,
2013-03-17 10:57:00,40.5,34.5,30.12,SW,215,7.0,7.0,79,0.00,,OVC085,0.00,VWS V14.01,2013-03-17 17:57:00,
2013-03-17 11:01:00,40.5,34.2,30.13,South,179,3.0,10.0,78,0.00,,BKN026,0.00,VWS V14.01,2013-03-17 18:01:00,
2013-03-17 11:02:00,40.5,34.2,30.13,SSW,192,5.0,5.0,78,0.00,,BKN026,0.00,VWS V14.01,2013-03-17 18:02:00,
2013-03-17 11:04:00,40.5,34.5,30.13,SSW,212,7.0,14.0,79,0.00,,BKN026,0.00,VWS V14.01,2013-03-17 18:04:00,
2013-03-17 11:06:00,40.6,34.3,30.13,SSW,206,7.0,14.0,78,0.00,,BKN026,0.00,VWS V14.01,2013-03-17 18:06:00,
2013-03-17 11:07:00,40.5,34.2,30.13,South,178,5.0,8.0,78,0.00,,BKN026,0.00,VWS V14.01,2013-03-17 18:07:00,
2013-03-17 11:11:00,40.6,34.3,30.13,SSW,202,6.0,6.0,78,0.00,,BKN026,0.00,VWS V14.01,2013-03-17 18:11:00,
2013-03-17 11:12:00,40.6,34.3,30.13,WSW,239,7.0,7.0,78,0.00,,BKN026,0.00,VWS V14.01,2013-03-17 18:12:00,
2013-03-17 11:13:00,40.6,34.3,30.13,SSW,206,11.0,14.0,78,0.00,,BKN026,0.00,VWS V14.01,2013-03-17 18:13:00,
2013-03-17 11:14:00,40.6,34.0,30.13,WSW,241,9.0,14.0,77,0.00,,BKN026,0.00,VWS V14.01,2013-03-17 18:14:00,
2013-03-17 11:19:00,40.9,34.6,30.13,WSW,250,0.0,4.0,78,0.00,,BKN026,0.00,VWS V14.01,2013-03-17 18:19:00,
2013-03-17 11:20:00,41.1,35.1,30.13,South,191,5.0,6.0,79,0.00,,BKN026,0.00,VWS V14.01,2013-03-17 18:20:00,
2013-03-17 11:22:00,41.2,35.2,30.13,SW,234,1.0,7.0,79,0.00,,BKN026,0.00,VWS V14.01,2013-03-17 18:22:00,
2013-03-17 11:24:00,41.5,35.5,30.13,SSW,206,2.0,7.0,79,0.00,,BKN026,0.00,VWS V14.01,2013-03-17 18:24:00,
2013-03-17 11:25:00,41.6,35.6,30.13,SW,223,4.0,13.0,79,0.00,,BKN026,0.00,VWS V14.01,2013-03-17 18:25:00,
2013-03-17 11:26:00,41.8,35.8,30.13,SSW,212,12.0,12.0,79,0.00,,BKN026,0.00,VWS V14.01,2013-03-17 18:26:00,
2013-03-17 11:29:00,41.8,35.8,30.13,West,265,5.0,18.0,79,0.00,,BKN026,0.00,VWS V14.01,2013-03-17 18:29:00,
2013-03-17 11:30:00,41.9,34.2,30.12,SSE,148,2.0,18.0,74,0.00,,BKN026,0.00,VWS V14.01,2013-03-17 18:30:00,
2013-03-17 11:33:00,42.5,34.8,30.12,SSE,165,3.0,7.0,74,0.00,,BKN026,0.00,VWS V14.01,2013-03-17 18:33:00,
2013-03-17 11:35:00,42.6,34.9,30.12,SW,232,11.0,11.0,74,0.00,,BKN026,0.00,VWS V14.01,2013-03-17 18:35:00,
2013-03-17 11:36:00,42.6,34.2,30.12,SSW,208,4.0,11.0,72,0.00,,BKN026,0.00,VWS V14.01,2013-03-17 18:36:00,
2013-03-17 11:40:00,42.9,34.5,30.12,West,272,6.0,17.0,72,0.00,,BKN026,0.00,VWS V14.01,2013-03-17 18:40:00,
2013-03-17 11:42:00,42.9,34.5,30.12,WSW,244,3.0,3.0,72,0.00,,BKN026,0.00,VWS V14.01,2013-03-17 18:42:00,
2013-03-17 11:43:00,42.8,34.4,30.12,SSW,205,7.0,7.0,72,0.00,,BKN026,0.00,VWS V14.01,2013-03-17 18:43:00,
2013-03-17 11:46:00,42.8,34.4,30.12,SW,226,7.0,9.0,72,0.00,,BKN026,0.00,VWS V14.01,2013-03-17 18:46:00,
2013-03-17 11:48:00,42.6,34.2,30.12,SSE,168,4.0,8.0,72,0.00,,BKN026,0.00,VWS V14.01,2013-03-17 18:48:00,
2013-03-17 11:51:00,42.5,34.1,30.12,SW,219,6.0,8.0,72,0.00,,BKN026,0.00,VWS V14.01,2013-03-17 18:51:00,
2013-03-17 11:53:00,42.2,33.8,30.12,South,189,6.0,12.0,72,0.00,,BKN026,0.00,VWS V14.01,2013-03-17 18:53:00,
2013-03-17 11:56:00,42.2,33.8,30.12,West,260,5.0,16.0,72,0.00,,BKN026,0.00,VWS V14.01,2013-03-17 18:56:00,
2013-03-17 11:57:00,42.2,33.8,30.12,SSE,157,2.0,4.0,72,0.00,,BKN026,0.00,VWS V14.01,2013-03-17 18:57:00,
2013-03-17 12:02:00,42.5,34.1,30.12,WSW,248,8.0,8.0,72,0.00,,BKN035,0.00,VWS V14.01,2013-03-17 19:02:00,
2013-03-17 12:03:00,42.3,33.9,30.12,SSW,208,7.0,8.0,72,0.00,,BKN035,0.00,VWS V14.01,2013-03-17 19:03:00,
2013-03-17 12:04:00,42.3,33.9,30.12,SSW,200,3.0,8.0,72,0.00,,BKN035,0.00,VWS V14.01,2013-03-17 19:04:00,
2013-03-17 12:05:00,42.3,33.9,30.12,South,171,2.0,8.0,72,0.00,,BKN035,0.00,VWS V14.01,2013-03-17 19:05:00,
2013-03-17 12:09:00,42.3,33.9,30.12,SW,215,8.0,10.0,72,0.00,,BKN035,0.00,VWS V14.01,2013-03-17 19:09:00,
2013-03-17 12:10:00,42.5,34.1,30.12,SW,220,3.0,11.0,72,0.00,,BKN035,0.00,VWS V14.01,2013-03-17 19:10:00,
2013-03-17 12:11:00,42.5,34.1,30.12,SSW,193,2.0,11.0,72,0.00,,BKN035,0.00,VWS V14.01,2013-03-17 19:11:00,
2013-03-17 12:15:00,43.2,35.1,30.12,SSW,203,2.0,8.0,73,0.00,,BKN035,0.00,VWS V14.01,2013-03-17 19:15:00,
2013-03-17 12:16:00,43.3,35.2,30.12,WSW,246,5.0,5.0,73,0.00,,BKN035,0.00,VWS V14.01,2013-03-17 19:16:00,
2013-03-17 12:17:00,43.6,35.5,30.12,SSW,208,3.0,10.0,73,0.00,,BKN035,0.00,VWS V14.01,2013-03-17 19:17:00,
2013-03-17 12:18:00,43.6,35.5,30.12,SW,223,8.0,10.0,73,0.00,,BKN035,0.00,VWS V14.01,2013-03-17 19:18:00,
2013-03-17 12:23:00,43.8,34.3,30.12,SSW,200,5.0,7.0,69,0.00,,BKN035,0.00,VWS V14.01,2013-03-17 19:23:00,
2013-03-17 12:26:00,43.6,33.8,30.12,SW,222,14.0,14.0,68,0.00,,BKN035,0.00,VWS V14.01,2013-03-17 19:26:00,
2013-03-17 12:27:00,43.6,33.8,30.12,WSW,247,11.0,14.0,68,0.00,,BKN035,0.00,VWS V14.01,2013-03-17 19:27:00,
2013-03-17 12:30:00,43.3,33.8,30.12,WSW,246,2.0,14.0,69,0.00,,BKN035,0.00,VWS V14.01,2013-03-17 19:30:00,
2013-03-17 12:32:00,43.3,33.8,30.12,SSW,212,2.0,3.0,69,0.00,,BKN035,0.00,VWS V14.01,2013-03-17 19:32:00,
2013-03-17 12:33:00,43.5,34.0,30.12,SW,219,4.0,4.0,69,0.00,,BKN035,0.00,VWS V14.01,2013-03-17 19:33:00,
2013-03-17 12:36:00,43.5,34.0,30.12,SW,215,10.0,10.0,69,0.00,,BKN035,0.00,VWS V14.01,2013-03-17 19:36:00,
2013-03-17 12:38:00,43.5,33.3,30.12,WSW,239,6.0,10.0,67,0.00,,BKN035,0.00,VWS V14.01,2013-03-17 19:38:00,
2013-03-17 12:41:00,43.5,33.3,30.12,SW,226,2.0,10.0,67,0.00,,BKN035,0.00,VWS V14.01,2013-03-17 19:41:00,
2013-03-17 12:44:00,43.5,34.0,30.12,WSW,248,6.0,8.0,69,0.00,,BKN035,0.00,VWS V14.01,2013-03-17 19:44:00,
2013-03-17 12:46:00,43.5,34.0,30.11,WSW,254,6.0,8.0,69,0.00,,BKN035,0.00,VWS V14.01,2013-03-17 19:46:00,
2013-03-17 12:49:00,43.2,33.7,30.11,SW,222,7.0,12.0,69,0.00,,BKN035,0.00,VWS V14.01,2013-03-17 19:49:00,
2013-03-17 12:52:00,43.2,32.6,30.11,SSW,209,11.0,11.0,66,0.00,,BKN035,0.00,VWS V14.01,2013-03-17 19:52:00,
2013-03-17 12:54:00,43.2,32.6,30.11,SW,233,16.0,16.0,66,0.00,,BKN035,0.00,VWS V14.01,2013-03-17 19:54:00,
2013-03-17 12:56:00,43.2,32.6,30.11,WSW,248,7.0,16.0,66,0.00,,BKN035,0.00,VWS V14.01,2013-03-17 19:56:00,
2013-03-17 12:58:00,43.1,32.5,30.11,SW,219,14.0,14.0,66,0.00,,BKN035,0.00,VWS V14.01,2013-03-17 19:58:00,
2013-03-17 13:01:00,42.9,32.3,30.12,WSW,243,10.0,14.0,66,0.00,,SCT030,0.00,VWS V14.01,2013-03-17 20:01:00,
2013-03-17 13:03:00,42.9,32.3,30.12,SW,229,5.0,10.0,66,0.00,,SCT030,0.00,VWS V14.01,2013-03-17 20:03:00,
2013-03-17 13:04:00,42.9,32.3,30.12,SW,223,7.0,10.0,66,0.00,,SCT030,0.00,VWS V14.01,2013-03-17 20:04:00,
2013-03-17 13:05:00,42.9,32.3,30.12,SSW,209,6.0,10.0,66,0.00,,SCT030,0.00,VWS V14.01,2013-03-17 20:05:00,
2013-03-17 13:08:00,42.9,32.3,30.12,WSW,257,13.0,14.0,66,0.00,,SCT030,0.00,VWS V14.01,2013-03-17 20:08:00,
2013-03-17 13:10:00,42.9,32.3,30.12,SW,234,12.0,14.0,66,0.00,,SCT030,0.00,VWS V14.01,2013-03-17 20:10:00,
2013-03-17 13:11:00,42.8,32.2,30.12,West,267,6.0,14.0,66,0.00,,SCT030,0.00,VWS V14.01,2013-03-17 20:11:00,
2013-03-17 13:16:00,43.2,33.0,30.12,WSW,241,7.0,11.0,67,0.00,,SCT030,0.00,VWS V14.01,2013-03-17 20:16:00,
2013-03-17 13:17:00,43.2,33.0,30.12,SW,224,4.0,14.0,67,0.00,,SCT030,0.00,VWS V14.01,2013-03-17 20:17:00,
2013-03-17 13:21:00,43.2,31.9,30.12,West,263,7.0,14.0,64,0.00,,SCT030,0.00,VWS V14.01,2013-03-17 20:21:00,
2013-03-17 13:22:00,43.2,31.9,30.12,SW,234,7.0,16.0,64,0.00,,SCT030,0.00,VWS V14.01,2013-03-17 20:22:00,
2013-03-17 13:26:00,43.2,32.2,30.12,WSW,248,5.0,16.0,65,0.00,,SCT030,0.00,VWS V14.01,2013-03-17 20:26:00,
2013-03-17 13:27:00,43.2,32.6,30.12,SW,224,9.0,9.0,66,0.00,,SCT030,0.00,VWS V14.01,2013-03-17 20:27:00,
2013-03-17 13:31:00,43.2,32.6,30.11,WSW,244,7.0,11.0,66,0.00,,SCT030,0.00,VWS V14.01,2013-03-17 20:31:00,
2013-03-17 13:32:00,43.2,31.9,30.11,SW,223,6.0,12.0,64,0.00,,SCT030,0.00,VWS V14.01,2013-03-17 20:32:00,
2013-03-17 13:36:00,43.2,31.9,30.11,WNW,291,5.0,12.0,64,0.00,,SCT030,0.00,VWS V14.01,2013-03-17 20:36:00,
2013-03-17 13:37:00,43.2,32.6,30.11,WSW,244,6.0,9.0,66,0.00,,SCT030,0.00,VWS V14.01,2013-03-17 20:37:00,
2013-03-17 13:39:00,43.2,32.6,30.11,WSW,237,11.0,13.0,66,0.00,,SCT030,0.00,VWS V14.01,2013-03-17 20:39:00,
2013-03-17 13:40:00,43.2,32.6,30.11,SW,220,8.0,13.0,66,0.00,,SCT030,0.00,VWS V14.01,2013-03-17 20:40:00,
2013-03-17 13:42:00,43.2,32.6,30.11,SW,216,5.0,9.0,66,0.00,,SCT030,0.00,VWS V14.01,2013-03-17 20:42:00,
2013-03-17 13:44:00,43.2,32.6,30.11,SW,216,5.0,9.0,66,0.00,,SCT030,0.00,VWS V14.01,2013-03-17 20:44:00,
2013-03-17 13:47:00,43.2,32.6,30.11,South,176,6.0,8.0,66,0.00,,SCT030,0.00,VWS V14.01,2013-03-17 20:47:00,
2013-03-17 13:50:00,43.3,32.7,30.11,SSW,192,6.0,9.0,66,0.00,,SCT030,0.00,VWS V14.01,2013-03-17 20:50:00,
2013-03-17 13:51:00,43.3,32.7,30.11,SW,233,16.0,16.0,66,0.00,,SCT030,0.00,VWS V14.01,2013-03-17 20:51:00,
2013-03-17 13:54:00,43.5,33.3,30.11,WSW,241,7.0,16.0,67,0.00,,SCT030,0.00,VWS V14.01,2013-03-17 20:54:00,
2013-03-17 13:56:00,43.6,33.0,30.11,SW,217,6.0,16.0,66,0.00,,SCT030,0.00,VWS V14.01,2013-03-17 20:56:00,
2013-03-17 13:57:00,43.8,33.2,30.11,WSW,253,8.0,11.0,66,0.00,,SCT030,0.00,VWS V14.01,2013-03-17 20:57:00,
2013-03-17 13:59:00,43.8,33.2,30.11,WSW,247,4.0,11.0,66,0.00,,SCT030,0.00,VWS V14.01,2013-03-17 20:59:00,
2013-03-17 14:02:00,44.2,32.8,30.11,WSW,241,7.0,11.0,64,0.00,,BKN048,0.00,VWS V14.01,2013-03-17 21:02:00,
2013-03-17 14:05:00,44.6,32.4,30.11,SW,233,6.0,13.0,62,0.00,,BKN048,0.00,VWS V14.01,2013-03-17 21:05:00,
2013-03-17 14:06:00,44.6,32.4,30.11,WSW,237,11.0,13.0,62,0.00,,BKN048,0.00,VWS V14.01,2013-03-17 21:06:00,
2013-03-17 14:11:00,45.5,32.8,30.11,SW,234,5.0,12.0,61,0.00,,BKN048,0.00,VWS V14.01,2013-03-17 21:11:00,
2013-03-17 14:14:00,45.8,31.9,30.11,SSW,210,8.0,17.0,58,0.00,,BKN048,0.00,VWS V14.01,2013-03-17 21:14:00,
2013-03-17 14:16:00,45.7,32.2,30.11,SSW,195,6.0,17.0,59,0.00,,BKN048,0.00,VWS V14.01,2013-03-17 21:16:00,
2013-03-17 14:17:00,45.7,32.6,30.11,SW,224,7.0,7.0,60,0.00,,BKN048,0.00,VWS V14.01,2013-03-17 21:17:00,
2013-03-17 14:18:00,45.8,32.7,30.11,SSE,162,7.0,11.0,60,0.00,,BKN048,0.00,VWS V14.01,2013-03-17 21:18:00,
2013-03-17 14:22:00,45.5,32.0,30.11,SSW,203,8.0,13.0,59,0.00,,BKN048,0.00,VWS V14.01,2013-03-17 21:22:00,
2013-03-17 14:23:00,45.5,32.0,30.11,SSW,208,10.0,13.0,59,0.00,,BKN048,0.00,VWS V14.01,2013-03-17 21:23:00,
2013-03-17 14:27:00,45.2,31.7,30.11,WSW,239,16.0,19.0,59,0.00,,BKN048,0.00,VWS V14.01,2013-03-17 21:27:00,
2013-03-17 14:28:00,45.2,31.7,30.11,SSW,206,16.0,19.0,59,0.00,,BKN048,0.00,VWS V14.01,2013-03-17 21:28:00,
2013-03-17 14:33:00,44.9,31.9,30.11,SW,224,13.0,14.0,60,0.00,,BKN048,0.00,VWS V14.01,2013-03-17 21:33:00,
2013-03-17 14:35:00,44.6,31.6,30.11,SSW,199,7.0,18.0,60,0.00,,BKN048,0.00,VWS V14.01,2013-03-17 21:35:00,
2013-03-17 14:36:00,44.6,31.6,30.11,WSW,254,8.0,18.0,60,0.00,,BKN048,0.00,VWS V14.01,2013-03-17 21:36:00,
2013-03-17 14:38:00,44.3,32.1,30.11,SSW,209,13.0,13.0,62,0.00,,BKN048,0.00,VWS V14.01,2013-03-17 21:38:00,
2013-03-17 14:44:00,43.9,32.1,30.11,WSW,247,6.0,14.0,63,0.00,,BKN048,0.00,VWS V14.01,2013-03-17 21:44:00,
2013-03-17 14:46:00,43.8,32.0,30.10,SW,227,11.0,14.0,63,0.00,,BKN048,0.00,VWS V14.01,2013-03-17 21:46:00,
2013-03-17 14:47:00,43.8,32.0,30.10,SW,233,3.0,8.0,63,0.00,,BKN048,0.00,VWS V14.01,2013-03-17 21:47:00,
2013-03-17 14:49:00,43.8,32.0,30.10,SSW,196,8.0,12.0,63,0.00,,BKN048,0.00,VWS V14.01,2013-03-17 21:49:00,
2013-03-17 14:52:00,43.8,33.6,30.10,SW,234,3.0,8.0,67,0.00,,BKN048,0.00,VWS V14.01,2013-03-17 21:52:00,
2013-03-17 14:54:00,43.8,34.3,30.10,SSE,151,6.0,8.0,69,0.00,,BKN048,0.00,VWS V14.01,2013-03-17 21:54:00,
2013-03-17 14:56:00,43.9,34.0,30.10,SSE,162,4.0,8.0,68,0.00,,BKN048,0.00,VWS V14.01,2013-03-17 21:56:00,
2013-03-17 14:57:00,43.9,34.0,30.10,SSE,168,12.0,12.0,68,0.00,,BKN048,0.00,VWS V14.01,2013-03-17 21:57:00,
2013-03-17 14:59:00,43.9,34.0,30.10,SW,224,16.0,16.0,68,0.00,,BKN048,0.00,VWS V14.01,2013-03-17 21:59:00,
2013-03-17 15:03:00,43.9,34.0,30.10,SW,219,8.0,8.0,68,0.00,,FEW039,0.00,VWS V14.01,2013-03-17 22:03:00,
2013-03-17 15:04:00,43.9,34.0,30.10,South,186,3.0,8.0,68,0.00,,FEW039,0.00,VWS V14.01,2013-03-17 22:04:00,
2013-03-17 15:06:00,44.1,34.2,30.10,SSW,199,8.0,8.0,68,0.00,,FEW039,0.00,VWS V14.01,2013-03-17 22:06:00,
2013-03-17 15:09:00,44.1,34.2,30.10,WSW,239,3.0,8.0,68,0.00,,FEW039,0.00,VWS V14.01,2013-03-17 22:09:00,
2013-03-17 15:11:00,44.2,34.3,30.10,WSW,256,10.0,14.0,68,0.00,,FEW039,0.00,VWS V14.01,2013-03-17 22:11:00,
2013-03-17 15:13:00,44.2,34.3,30.10,SSW,208,10.0,12.0,68,0.00,,FEW039,0.00,VWS V14.01,2013-03-17 22:13:00,
2013-03-17 15:17:00,44.1,33.9,30.10,SSW,198,3.0,11.0,67,0.00,,FEW039,0.00,VWS V14.01,2013-03-17 22:17:00,
2013-03-17 15:18:00,44.1,33.9,30.10,SSE,164,5.0,11.0,67,0.00,,FEW039,0.00,VWS V14.01,2013-03-17 22:18:00,
2013-03-17 15:19:00,44.1,33.9,30.10,WSW,239,14.0,14.0,67,0.00,,FEW039,0.00,VWS V14.01,2013-03-17 22:19:00,
2013-03-17 15:23:00,43.9,34.0,30.10,SW,224,5.0,16.0,68,0.00,,FEW039,0.00,VWS V14.01,2013-03-17 22:23:00,
2013-03-17 15:24:00,43.9,34.0,30.10,SW,226,3.0,16.0,68,0.00,,FEW039,0.00,VWS V14.01,2013-03-17 22:24:00,
2013-03-17 15:26:00,43.9,34.0,30.10,SSW,196,2.0,16.0,68,0.00,,FEW039,0.00,VWS V14.01,2013-03-17 22:26:00,
2013-03-17 15:29:00,44.1,34.2,30.10,SSW,203,7.0,7.0,68,0.00,,FEW039,0.00,VWS V14.01,2013-03-17 22:29:00,
2013-03-17 15:31:00,44.2,35.0,30.10,SE,145,2.0,7.0,70,0.00,,FEW039,0.00,VWS V14.01,2013-03-17 22:31:00,
2013-03-17 15:33:00,44.2,35.0,30.10,SSW,212,1.0,5.0,70,0.00,,FEW039,0.00,VWS V14.01,2013-03-17 22:33:00,
2013-03-17 15:34:00,44.3,35.5,30.10,South,179,3.0,5.0,71,0.00,,FEW039,0.00,VWS V14.01,2013-03-17 22:34:00,
2013-03-17 15:37:00,44.3,35.5,30.10,South,182,2.0,7.0,71,0.00,,FEW039,0.00,VWS V14.01,2013-03-17 22:37:00,
2013-03-17 15:38:00,44.3,35.5,30.10,SSW,193,5.0,7.0,71,0.00,,FEW039,0.00,VWS V14.01,2013-03-17 22:38:00,
2013-03-17 15:40:00,44.3,35.5,30.10,SSW,209,1.0,7.0,71,0.00,,FEW039,0.00,VWS V14.01,2013-03-17 22:40:00,
2013-03-17 15:42:00,44.2,35.4,30.10,South,176,4.0,7.0,71,0.00,,FEW039,0.00,VWS V14.01,2013-03-17 22:42:00,
2013-03-17 15:43:00,44.2,35.4,30.10,SW,229,8.0,13.0,71,0.00,,FEW039,0.00,VWS V14.01,2013-03-17 22:43:00,
2013-03-17 15:46:00,44.1,35.3,30.10,South,191,2.0,5.0,71,0.00,,FEW039,0.00,VWS V14.01,2013-03-17 22:46:00,
2013-03-17 15:49:00,43.9,34.0,30.10,SSW,198,7.0,11.0,68,0.00,,FEW039,0.00,VWS V14.01,2013-03-17 22:49:00,
2013-03-17 15:51:00,43.9,34.0,30.10,SSW,205,7.0,7.0,68,0.00,,FEW039,0.00,VWS V14.01,2013-03-17 22:51:00,
2013-03-17 15:55:00,43.9,33.3,30.10,SSW,193,9.0,18.0,66,0.00,,FEW039,0.00,VWS V14.01,2013-03-17 22:55:00,
2013-03-17 15:56:00,43.9,32.9,30.10,SW,220,17.0,18.0,65,0.00,,FEW039,0.00,VWS V14.01,2013-03-17 22:56:00,
2013-03-17 15:58:00,43.8,32.8,30.10,SSW,208,6.0,18.0,65,0.00,,FEW039,0.00,VWS V14.01,2013-03-17 22:58:00,
2013-03-17 16:00:00,43.9,33.3,30.10,SW,220,12.0,18.0,66,0.00,,FEW039,0.00,VWS V14.01,2013-03-17 23:00:00,
2013-03-17 16:04:00,43.9,33.7,30.10,WSW,247,10.0,12.0,67,0.00,,BKN043,0.00,VWS V14.01,2013-03-17 23:04:00,
2013-03-17 16:05:00,43.9,33.3,30.10,SSE,168,4.0,12.0,66,0.00,,BKN043,0.00,VWS V14.01,2013-03-17 23:05:00,
2013-03-17 16:06:00,43.9,33.3,30.10,SW,226,11.0,13.0,66,0.00,,BKN043,0.00,VWS V14.01,2013-03-17 23:06:00,
2013-03-17 16:09:00,43.9,33.7,30.10,SSE,160,5.0,10.0,67,0.00,,BKN043,0.00,VWS V14.01,2013-03-17 23:09:00,
2013-03-17 16:11:00,43.9,33.7,30.10,SW,229,7.0,14.0,67,0.00,,BKN043,0.00,VWS V14.01,2013-03-17 23:11:00,
2013-03-17 16:12:00,43.9,33.7,30.10,SW,226,5.0,7.0,67,0.00,,BKN043,0.00,VWS V14.01,2013-03-17 23:12:00,
2013-03-17 16:14:00,44.1,33.9,30.10,SSW,206,8.0,8.0,67,0.00,,BKN043,0.00,VWS V14.01,2013-03-17 23:14:00,
2013-03-17 16:18:00,44.1,34.2,30.10,South,176,5.0,9.0,68,0.00,,BKN043,0.00,VWS V14.01,2013-03-17 23:18:00,
2013-03-17 16:19:00,44.1,34.2,30.10,SSW,196,8.0,9.0,68,0.00,,BKN043,0.00,VWS V14.01,2013-03-17 23:19:00,
2013-03-17 16:21:00,44.1,34.2,30.10,SSW,213,2.0,9.0,68,0.00,,BKN043,0.00,VWS V14.01,2013-03-17 23:21:00,
2013-03-17 16:24:00,43.9,34.4,30.10,WSW,237,9.0,17.0,69,0.00,,BKN043,0.00,VWS V14.01,2013-03-17 23:24:00,
2013-03-17 16:25:00,43.9,34.4,30.10,SW,234,5.0,17.0,69,0.00,,BKN043,0.00,VWS V14.01,2013-03-17 23:25:00,
2013-03-17 16:26:00,43.9,34.8,30.10,SW,217,5.0,17.0,70,0.00,,BKN043,0.00,VWS V14.01,2013-03-17 23:26:00,
2013-03-17 16:28:00,43.8,34.7,30.10,SW,217,1.0,8.0,70,0.00,,BKN043,0.00,VWS V14.01,2013-03-17 23:28:00,
2013-03-17 16:30:00,43.8,34.7,30.10,SSW,195,4.0,10.0,70,0.00,,BKN043,0.00,VWS V14.01,2013-03-17 23:30:00,
2013-03-17 16:31:00,43.8,34.7,30.10,SW,217,8.0,10.0,70,0.00,,BKN043,0.00,VWS V14.01,2013-03-17 23:31:00,
2013-03-17 16:33:00,43.8,34.7,30.10,SSW,208,5.0,8.0,70,0.00,,BKN043,0.00,VWS V14.01,2013-03-17 23:33:00,
2013-03-17 16:35:00,43.6,34.8,30.10,SSW,206,5.0,12.0,71,0.00,,BKN043,0.00,VWS V14.01,2013-03-17 23:35:00,
2013-03-17 16:39:00,43.6,35.2,30.10,SSW,210,2.0,10.0,72,0.00,,BKN043,0.00,VWS V14.01,2013-03-17 23:39:00,
2013-03-17 16:41:00,43.6,35.2,30.10,WSW,239,6.0,10.0,72,0.00,,BKN043,0.00,VWS V14.01,2013-03-17 23:41:00,
2013-03-17 16:43:00,43.5,35.1,30.10,SSW,212,3.0,10.0,72,0.00,,BKN043,0.00,VWS V14.01,2013-03-17 23:43:00,
2013-03-17 16:45:00,43.5,35.1,30.10,WSW,244,7.0,13.0,72,0.00,,BKN043,0.00,VWS V14.01,2013-03-17 23:45:00,
2013-03-17 16:46:00,43.5,35.1,30.10,SW,223,6.0,6.0,72,0.00,,BKN043,0.00,VWS V14.01,2013-03-17 23:46:00,
2013-03-17 16:51:00,43.3,33.8,30.10,SW,230,7.0,7.0,69,0.00,,BKN043,0.00,VWS V14.01,2013-03-17 23:51:00,
2013-03-17 16:53:00,43.3,33.8,30.10,WSW,251,7.0,7.0,69,0.00,,BKN043,0.00,VWS V14.01,2013-03-17 23:53:00,
2013-03-17 16:54:00,43.3,34.5,30.10,SSW,212,2.0,7.0,71,0.00,,BKN043,0.00,VWS V14.01,2013-03-17 23:54:00,
2013-03-17 16:55:00,43.3,34.5,30.10,SSW,213,2.0,9.0,71,0.00,,BKN043,0.00,VWS V14.01,2013-03-17 23:55:00,
2013-03-17 16:56:00,43.3,34.5,30.10,SSW,209,10.0,17.0,71,0.00,,BKN043,0.00,VWS V14.01,2013-03-17 23:56:00,
2013-03-17 17:01:00,43.1,34.0,30.11,South,182,3.0,16.0,70,0.00,,FEW037,0.00,VWS V14.01,2013-03-18 00:01:00,
2013-03-17 17:02:00,43.1,34.0,30.11,SW,227,8.0,12.0,70,0.00,,FEW037,0.00,VWS V14.01,2013-03-18 00:02:00,
2013-03-17 17:05:00,42.9,33.8,30.11,SW,216,10.0,12.0,70,0.00,,FEW037,0.00,VWS V14.01,2013-03-18 00:05:00,
2013-03-17 17:06:00,42.8,33.7,30.11,South,176,2.0,6.0,70,0.00,,FEW037,0.00,VWS V14.01,2013-03-18 00:06:00,
2013-03-17 17:08:00,42.8,33.3,30.11,SW,234,4.0,6.0,69,0.00,,FEW037,0.00,VWS V14.01,2013-03-18 00:08:00,
2013-03-17 17:10:00,42.8,34.1,30.11,SW,227,7.0,10.0,71,0.00,,FEW037,0.00,VWS V14.01,2013-03-18 00:10:00,
2013-03-17 17:11:00,42.8,33.7,30.11,SW,215,6.0,10.0,70,0.00,,FEW037,0.00,VWS V14.01,2013-03-18 00:11:00,
2013-03-17 17:14:00,42.6,33.5,30.11,WSW,254,4.0,12.0,70,0.00,,FEW037,0.00,VWS V14.01,2013-03-18 00:14:00,
2013-03-17 17:16:00,42.6,33.9,30.11,WSW,246,0.0,12.0,71,0.00,,FEW037,0.00,VWS V14.01,2013-03-18 00:16:00,
2013-03-17 17:17:00,42.6,33.9,30.11,WSW,240,2.0,3.0,71,0.00,,FEW037,0.00,VWS V14.01,2013-03-18 00:17:00,
2013-03-17 17:21:00,42.6,34.2,30.11,SSW,203,2.0,14.0,72,0.00,,FEW037,0.00,VWS V14.01,2013-03-18 00:21:00,
2013-03-17 17:24:00,42.5,34.1,30.11,SW,217,8.0,11.0,72,0.00,,FEW037,0.00,VWS V14.01,2013-03-18 00:24:00,
2013-03-17 17:25:00,42.5,34.1,30.11,SSW,210,8.0,11.0,72,0.00,,FEW037,0.00,VWS V14.01,2013-03-18 00:25:00,
2013-03-17 17:26:00,42.5,34.1,30.11,South,179,2.0,11.0,72,0.00,,FEW037,0.00,VWS V14.01,2013-03-18 00:26:00,
2013-03-17 17:31:00,42.3,34.3,30.11,SSW,212,4.0,10.0,73,0.00,,FEW037,0.00,VWS V14.01,2013-03-18 00:31:00,
2013-03-17 17:33:00,42.3,34.3,30.11,SSW,198,1.0,7.0,73,0.00,,FEW037,0.00,VWS V14.01,2013-03-18 00:33:00,
2013-03-17 17:34:00,42.3,34.3,30.11,SSW,199,1.0,7.0,73,0.00,,FEW037,0.00,VWS V14.01,2013-03-18 00:34:00,
2013-03-17 17:35:00,42.3,34.6,30.11,SSW,199,3.0,7.0,74,0.00,,FEW037,0.00,VWS V14.01,2013-03-18 00:35:00,
2013-03-17 17:38:00,42.3,34.6,30.11,WSW,239,1.0,7.0,74,0.00,,FEW037,0.00,VWS V14.01,2013-03-18 00:38:00,
2013-03-17 17:40:00,42.3,34.6,30.11,SW,223,0.0,7.0,74,0.00,,FEW037,0.00,VWS V14.01,2013-03-18 00:40:00,
2013-03-17 17:41:00,42.3,34.6,30.11,SW,223,1.0,7.0,74,0.00,,FEW037,0.00,VWS V14.01,2013-03-18 00:41:00,
2013-03-17 17:43:00,42.3,34.6,30.11,SW,219,2.0,6.0,74,0.00,,FEW037,0.00,VWS V14.01,2013-03-18 00:43:00,
2013-03-17 17:44:00,42.3,34.6,30.11,SW,222,2.0,6.0,74,0.00,,FEW037,0.00,VWS V14.01,2013-03-18 00:44:00,
2013-03-17 17:48:00,42.3,35.0,30.11,SW,220,1.0,3.0,75,0.00,,FEW037,0.00,VWS V14.01,2013-03-18 00:48:00,
2013-03-17 17:50:00,42.3,35.0,30.11,SW,220,5.0,7.0,75,0.00,,FEW037,0.00,VWS V14.01,2013-03-18 00:50:00,
2013-03-17 17:52:00,42.3,35.0,30.11,SSW,206,4.0,7.0,75,0.00,,FEW037,0.00,VWS V14.01,2013-03-18 00:52:00,
2013-03-17 17:55:00,42.3,35.0,30.11,SSW,206,1.0,7.0,75,0.00,,FEW037,0.00,VWS V14.01,2013-03-18 00:55:00,
2013-03-17 17:56:00,42.3,35.0,30.11,SSW,209,3.0,4.0,75,0.00,,FEW037,0.00,VWS V14.01,2013-03-18 00:56:00,
2013-03-17 17:59:00,42.3,35.0,30.11,SSW,209,2.0,4.0,75,0.00,,FEW037,0.00,VWS V14.01,2013-03-18 00:59:00,
2013-03-17 18:01:00,42.3,35.0,30.11,SSW,209,3.0,4.0,75,0.00,,OVC100,0.00,VWS V14.01,2013-03-18 01:01:00,
2013-03-17 18:05:00,42.3,35.0,30.11,SSW,209,2.0,5.0,75,0.00,,OVC100,0.00,VWS V14.01,2013-03-18 01:05:00,
2013-03-17 18:06:00,42.3,35.0,30.11,SSW,209,2.0,4.0,75,0.00,,OVC100,0.00,VWS V14.01,2013-03-18 01:06:00,
2013-03-17 18:07:00,42.3,35.6,30.11,South,175,2.0,4.0,77,0.00,,OVC100,0.00,VWS V14.01,2013-03-18 01:07:00,
2013-03-17 18:08:00,42.2,35.5,30.11,WSW,246,6.0,11.0,77,0.00,,OVC100,0.00,VWS V14.01,2013-03-18 01:08:00,
2013-03-17 18:11:00,42.2,34.9,30.11,SSW,206,8.0,12.0,75,0.00,,OVC100,0.00,VWS V14.01,2013-03-18 01:11:00,
2013-03-17 18:12:00,42.1,34.8,30.11,SSW,205,10.0,18.0,75,0.00,,OVC100,0.00,VWS V14.01,2013-03-18 01:12:00,
2013-03-17 18:16:00,41.9,34.6,30.10,SW,219,4.0,18.0,75,0.00,,OVC100,0.00,VWS V14.01,2013-03-18 01:16:00,
2013-03-17 18:17:00,41.9,34.6,30.10,WSW,237,10.0,10.0,75,0.00,,OVC100,0.00,VWS V14.01,2013-03-18 01:17:00,
2013-03-17 18:20:00,41.9,33.2,30.10,SW,224,10.0,17.0,71,0.00,,OVC100,0.00,VWS V14.01,2013-03-18 01:20:00,
2013-03-17 18:22:00,41.9,33.2,30.10,SW,224,6.0,17.0,71,0.00,,OVC100,0.00,VWS V14.01,2013-03-18 01:22:00,
2013-03-17 18:24:00,41.8,32.8,30.10,SW,216,3.0,17.0,70,0.00,,OVC100,0.00,VWS V14.01,2013-03-18 01:24:00,
2013-03-17 18:25:00,41.8,32.8,30.10,South,178,6.0,17.0,70,0.00,,OVC100,0.00,VWS V14.01,2013-03-18 01:25:00,
2013-03-17 18:29:00,41.8,32.8,30.10,SW,234,10.0,16.0,70,0.00,,OVC100,0.00,VWS V14.01,2013-03-18 01:29:00,
2013-03-17 18:31:00,41.8,32.8,30.10,SSW,198,7.0,16.0,70,0.00,,OVC100,0.00,VWS V14.01,2013-03-18 01:31:00,
2013-03-17 18:32:00,41.8,32.8,30.10,SW,224,12.0,12.0,70,0.00,,OVC100,0.00,VWS V14.01,2013-03-18 01:32:00,
2013-03-17 18:36:00,41.6,32.6,30.10,SW,230,2.0,12.0,70,0.00,,OVC100,0.00,VWS V14.01,2013-03-18 01:36:00,
2013-03-17 18:37:00,41.6,32.6,30.10,WSW,240,11.0,11.0,70,0.00,,OVC100,0.00,VWS V14.01,2013-03-18 01:37:00,
2013-03-17 18:38:00,41.6,32.9,30.10,SW,234,2.0,11.0,71,0.00,,OVC100,0.00,VWS V14.01,2013-03-18 01:38:00,
2013-03-17 18:42:00,41.5,32.8,30.10,SSW,206,6.0,6.0,71,0.00,,OVC100,0.00,VWS V14.01,2013-03-18 01:42:00,
2013-03-17 18:44:00,41.5,32.8,30.10,WSW,254,8.0,8.0,71,0.00,,OVC100,0.00,VWS V14.01,2013-03-18 01:44:00,
2013-03-17 18:45:00,41.5,32.8,30.10,SSW,200,3.0,8.0,71,0.00,,OVC100,0.00,VWS V14.01,2013-03-18 01:45:00,
2013-03-17 18:47:00,41.5,32.8,30.10,South,184,2.0,2.0,71,0.00,,OVC100,0.00,VWS V14.01,2013-03-18 01:47:00,
2013-03-17 18:48:00,41.3,32.6,30.10,SW,227,7.0,12.0,71,0.00,,OVC100,0.00,VWS V14.01,2013-03-18 01:48:00,
2013-03-17 18:50:00,41.3,32.6,30.10,SSW,200,6.0,12.0,71,0.00,,OVC100,0.00,VWS V14.01,2013-03-18 01:50:00,
2013-03-17 18:52:00,41.3,32.6,30.10,South,184,3.0,4.0,71,0.00,,OVC100,0.00,VWS V14.01,2013-03-18 01:52:00,
2013-03-17 18:53:00,41.2,32.5,30.10,SW,217,5.0,7.0,71,0.00,,OVC100,0.00,VWS V14.01,2013-03-18 01:53:00,
2013-03-17 18:56:00,41.2,32.2,30.10,SSW,210,3.0,11.0,70,0.00,,OVC100,0.00,VWS V14.01,2013-03-18 01:56:00,
2013-03-17 18:57:00,41.2,32.2,30.10,SSW,209,4.0,6.0,70,0.00,,OVC100,0.00,VWS V14.01,2013-03-18 01:57:00,
2013-03-17 18:58:00,41.2,32.5,30.10,SSW,206,6.0,7.0,71,0.00,,OVC100,0.00,VWS V14.01,2013-03-18 01:58:00,
2013-03-17 18:59:00,41.1,32.4,30.10,SSW,209,7.0,17.0,71,0.00,,OVC100,0.00,VWS V14.01,2013-03-18 01:59:00,
2013-03-17 19:01:00,41.1,32.4,30.10,SW,236,10.0,17.0,71,0.00,,OVC100,0.00,VWS V14.01,2013-03-18 02:01:00,
2013-03-17 19:05:00,41.1,32.4,30.10,SW,220,13.0,13.0,71,0.00,,OVC100,0.00,VWS V14.01,2013-03-18 02:05:00,
2013-03-17 19:06:00,41.1,32.8,30.10,WSW,248,7.0,13.0,72,0.00,,OVC100,0.00,VWS V14.01,2013-03-18 02:06:00,
2013-03-17 19:09:00,40.9,32.6,30.10,SW,232,2.0,8.0,72,0.00,,OVC100,0.00,VWS V14.01,2013-03-18 02:09:00,
2013-03-17 19:10:00,40.9,32.6,30.10,SW,230,5.0,8.0,72,0.00,,OVC100,0.00,VWS V14.01,2013-03-18 02:10:00,
2013-03-17 19:11:00,40.9,32.9,30.10,SW,222,3.0,8.0,73,0.00,,OVC100,0.00,VWS V14.01,2013-03-18 02:11:00,
2013-03-17 19:13:00,40.9,32.9,30.10,SSW,206,3.0,6.0,73,0.00,,OVC100,0.00,VWS V14.01,2013-03-18 02:13:00,
2013-03-17 19:15:00,40.9,32.9,30.10,SSW,203,2.0,6.0,73,0.00,,OVC100,0.00,VWS V14.01,2013-03-18 02:15:00,
2013-03-17 19:16:00,40.9,32.9,30.10,SSW,203,1.0,6.0,73,0.00,,OVC100,0.00,VWS V14.01,2013-03-18 02:16:00,
2013-03-17 19:17:00,40.9,32.9,30.10,SSW,203,2.0,2.0,73,0.00,,OVC100,0.00,VWS V14.01,2013-03-18 02:17:00,
2013-03-17 19:18:00,40.9,32.9,30.10,SSW,205,3.0,4.0,73,0.00,,OVC100,0.00,VWS V14.01,2013-03-18 02:18:00,
2013-03-17 19:21:00,40.8,32.8,30.10,SW,215,3.0,6.0,73,0.00,,OVC100,0.00,VWS V14.01,2013-03-18 02:21:00,
2013-03-17 19:24:00,40.8,32.8,30.10,SSW,209,16.0,16.0,73,0.00,,OVC100,0.00,VWS V14.01,2013-03-18 02:24:00,
2013-03-17 19:26:00,40.8,32.8,30.10,NW,312,5.0,16.0,73,0.00,,OVC100,0.00,VWS V14.01,2013-03-18 02:26:00,
2013-03-17 19:27:00,40.8,32.8,30.10,SSW,208,3.0,6.0,73,0.00,,OVC100,0.00,VWS V14.01,2013-03-18 02:27:00,
2013-03-17 19:31:00,40.8,32.1,30.10,SW,217,5.0,5.0,71,0.00,,OVC100,0.00,VWS V14.01,2013-03-18 02:31:00,
2013-03-17 19:32:00,40.8,32.1,30.10,SW,226,5.0,6.0,71,0.00,,OVC100,0.00,VWS V14.01,2013-03-18 02:32:00,
2013-03-17 19:34:00,40.6,31.6,30.10,South,176,2.0,8.0,70,0.00,,OVC100,0.00,VWS V14.01,2013-03-18 02:34:00,
2013-03-17 19:35:00,40.6,31.6,30.10,SSW,198,7.0,8.0,70,0.00,,OVC100,0.00,VWS V14.01,2013-03-18 02:35:00,
2013-03-17 19:37:00,40.6,31.6,30.10,SSW,200,6.0,12.0,70,0.00,,OVC100,0.00,VWS V14.01,2013-03-18 02:37:00,
2013-03-17 19:39:00,40.6,31.6,30.10,SW,234,3.0,12.0,70,0.00,,OVC100,0.00,VWS V14.01,2013-03-18 02:39:00,
2013-03-17 19:41:00,40.6,31.6,30.10,West,267,4.0,4.0,70,0.00,,OVC100,0.00,VWS V14.01,2013-03-18 02:41:00,
2013-03-17 19:44:00,40.6,32.0,30.10,South,189,1.0,12.0,71,0.00,,OVC100,0.00,VWS V14.01,2013-03-18 02:44:00,
2013-03-17 19:46:00,40.6,32.0,30.10,SSW,200,3.0,12.0,71,0.00,,OVC100,0.00,VWS V14.01,2013-03-18 02:46:00,
2013-03-17 19:51:00,40.5,32.2,30.10,SSW,195,2.0,2.0,72,0.00,,OVC100,0.00,VWS V14.01,2013-03-18 02:51:00,
2013-03-17 19:53:00,40.5,32.5,30.10,SSW,202,8.0,8.0,73,0.00,,OVC100,0.00,VWS V14.01,2013-03-18 02:53:00,
2013-03-17 19:54:00,40.5,32.5,30.10,SSW,210,10.0,11.0,73,0.00,,OVC100,0.00,VWS V14.01,2013-03-18 02:54:00,
2013-03-17 19:56:00,40.5,32.5,30.10,South,191,2.0,2.0,73,0.00,,OVC100,0.00,VWS V14.01,2013-03-18 02:56:00,
2013-03-17 19:58:00,40.3,32.3,30.10,SW,233,5.0,6.0,73,0.00,,OVC100,0.00,VWS V14.01,2013-03-18 02:58:00,
2013-03-17 20:00:00,40.3,32.3,30.10,SSW,208,2.0,6.0,73,0.00,,OVC090,0.00,VWS V14.01,2013-03-18 03:00:00,
2013-03-17 20:01:00,40.3,32.7,30.10,SSW,206,2.0,6.0,74,0.00,,OVC090,0.00,VWS V14.01,2013-03-18 03:01:00,
2013-03-17 20:04:00,40.3,32.7,30.10,South,189,2.0,7.0,74,0.00,,OVC090,0.00,VWS V14.01,2013-03-18 03:04:00,
2013-03-17 20:05:00,40.3,32.7,30.10,SW,233,1.0,7.0,74,0.00,,OVC090,0.00,VWS V14.01,2013-03-18 03:05:00,
2013-03-17 20:09:00,40.2,32.6,30.10,SW,230,8.0,12.0,74,0.00,,OVC090,0.00,VWS V14.01,2013-03-18 03:09:00,
2013-03-17 20:10:00,40.2,32.6,30.10,SSW,212,5.0,12.0,74,0.00,,OVC090,0.00,VWS V14.01,2013-03-18 03:10:00,
2013-03-17 20:13:00,40.2,33.2,30.10,SW,236,8.0,11.0,76,0.00,,OVC090,0.00,VWS V14.01,2013-03-18 03:13:00,
2013-03-17 20:16:00,40.2,33.2,30.10,South,182,5.0,12.0,76,0.00,,OVC090,0.00,VWS V14.01,2013-03-18 03:16:00,
2013-03-17 20:18:00,40.2,33.2,30.10,SW,232,3.0,8.0,76,0.00,,OVC090,0.00,VWS V14.01,2013-03-18 03:18:00,
2013-03-17 20:20:00,40.2,33.6,30.10,SW,220,12.0,16.0,77,0.00,,OVC090,0.00,VWS V14.01,2013-03-18 03:20:00,
2013-03-17 20:21:00,40.2,33.6,30.10,SSW,199,6.0,7.0,77,0.00,,OVC090,0.00,VWS V14.01,2013-03-18 03:21:00,
2013-03-17 20:23:00,40.2,33.6,30.10,SW,215,7.0,8.0,77,0.00,,OVC090,0.00,VWS V14.01,2013-03-18 03:23:00,
2013-03-17 20:26:00,40.1,33.5,30.10,SW,229,6.0,8.0,77,0.00,,OVC090,0.00,VWS V14.01,2013-03-18 03:26:00,
2013-03-17 20:27:00,40.1,33.5,30.10,South,186,5.0,7.0,77,0.00,,OVC090,0.00,VWS V14.01,2013-03-18 03:27:00,
2013-03-17 20:29:00,40.1,33.5,30.10,SW,217,3.0,10.0,77,0.00,,OVC090,0.00,VWS V14.01,2013-03-18 03:29:00,
2013-03-17 20:31:00,40.1,33.5,30.10,SW,216,5.0,10.0,77,0.00,,OVC090,0.00,VWS V14.01,2013-03-18 03:31:00,
2013-03-17 20:32:00,40.1,33.5,30.10,SW,216,2.0,5.0,77,0.00,,OVC090,0.00,VWS V14.01,2013-03-18 03:32:00,
2013-03-17 20:34:00,40.1,33.5,30.10,SW,227,3.0,5.0,77,0.00,,OVC090,0.00,VWS V14.01,2013-03-18 03:34:00,
2013-03-17 20:35:00,40.1,33.5,30.10,SW,227,3.0,5.0,77,0.00,,OVC090,0.00,VWS V14.01,2013-03-18 03:35:00,
2013-03-17 20:36:00,40.1,33.5,30.10,SW,224,4.0,6.0,77,0.00,,OVC090,0.00,VWS V14.01,2013-03-18 03:36:00,
2013-03-17 20:37:00,40.1,33.5,30.10,SW,229,5.0,5.0,77,0.00,,OVC090,0.00,VWS V14.01,2013-03-18 03:37:00,
2013-03-17 20:41:00,40.1,33.5,30.10,SSW,210,2.0,8.0,77,0.00,,OVC090,0.00,VWS V14.01,2013-03-18 03:41:00,
2013-03-17 20:46:00,40.1,33.5,30.10,SSW,199,5.0,6.0,77,0.00,,OVC090,0.00,VWS V14.01,2013-03-18 03:46:00,
2013-03-17 20:47:00,40.1,33.5,30.10,South,186,10.0,11.0,77,0.00,,OVC090,0.00,VWS V14.01,2013-03-18 03:47:00,
2013-03-17 20:51:00,39.9,33.3,30.10,SW,223,2.0,11.0,77,0.00,,OVC090,0.00,VWS V14.01,2013-03-18 03:51:00,
2013-03-17 20:52:00,39.9,33.3,30.10,SW,223,2.0,3.0,77,0.00,,OVC090,0.00,VWS V14.01,2013-03-18 03:52:00,
2013-03-17 20:54:00,39.9,33.3,30.10,SW,217,4.0,9.0,77,0.00,,OVC090,0.00,VWS V14.01,2013-03-18 03:54:00,
2013-03-17 20:56:00,39.9,33.3,30.10,SSW,205,2.0,10.0,77,0.00,,OVC090,0.00,VWS V14.01,2013-03-18 03:56:00,
2013-03-17 20:57:00,39.9,33.3,30.10,SSW,192,3.0,10.0,77,0.00,,OVC090,0.00,VWS V14.01,2013-03-18 03:57:00,
2013-03-17 21:00:00,39.9,33.3,30.10,SSW,198,2.0,12.0,77,0.00,,OVC090,0.00,VWS V14.01,2013-03-18 04:00:00,
2013-03-17 21:01:00,39.9,33.3,30.11,SW,215,8.0,12.0,77,0.00,,OVC031,0.00,VWS V14.01,2013-03-18 04:01:00,
2013-03-17 21:05:00,39.8,33.2,30.11,WSW,254,8.0,20.0,77,0.00,,OVC031,0.00,VWS V14.01,2013-03-18 04:05:00,
2013-03-17 21:07:00,39.8,32.9,30.11,SW,217,10.0,12.0,76,0.00,,OVC031,0.00,VWS V14.01,2013-03-18 04:07:00,
2013-03-17 21:08:00,39.8,32.9,30.11,SSW,199,12.0,12.0,76,0.00,,OVC031,0.00,VWS V14.01,2013-03-18 04:08:00,
2013-03-17 21:13:00,39.6,32.7,30.11,SW,222,1.0,7.0,76,0.00,,OVC031,0.00,VWS V14.01,2013-03-18 04:13:00,
2013-03-17 21:14:00,39.6,32.7,30.11,WSW,253,11.0,11.0,76,0.00,,OVC031,0.00,VWS V14.01,2013-03-18 04:14:00,
2013-03-17 21:16:00,39.6,32.7,30.11,SSE,154,1.0,11.0,76,0.00,,OVC031,0.00,VWS V14.01,2013-03-18 04:16:00,
2013-03-17 21:18:00,39.6,32.7,30.11,SSW,206,7.0,9.0,76,0.00,,OVC031,0.00,VWS V14.01,2013-03-18 04:18:00,
2013-03-17 21:21:00,39.6,32.7,30.11,South,188,2.0,9.0,76,0.00,,OVC031,0.00,VWS V14.01,2013-03-18 04:21:00,
2013-03-17 21:23:00,39.5,32.9,30.11,WSW,250,3.0,7.0,77,0.00,,OVC031,0.00,VWS V14.01,2013-03-18 04:23:00,
2013-03-17 21:24:00,39.5,32.9,30.11,WSW,243,3.0,7.0,77,0.00,,OVC031,0.00,VWS V14.01,2013-03-18 04:24:00,
2013-03-17 21:26:00,39.5,32.6,30.11,WSW,243,6.0,6.0,76,0.00,,OVC031,0.00,VWS V14.01,2013-03-18 04:26:00,
2013-03-17 21:30:00,39.5,32.6,30.11,SW,220,3.0,16.0,76,0.00,,OVC031,0.00,VWS V14.01,2013-03-18 04:30:00,
2013-03-17 21:31:00,39.5,32.6,30.11,SSE,165,4.0,4.0,76,0.00,,OVC031,0.00,VWS V14.01,2013-03-18 04:31:00,
2013-03-17 21:32:00,39.5,32.6,30.11,SSW,213,6.0,6.0,76,0.00,,OVC031,0.00,VWS V14.01,2013-03-18 04:32:00,
2013-03-17 21:34:00,39.5,32.9,30.11,WSW,244,13.0,13.0,77,0.00,,OVC031,0.00,VWS V14.01,2013-03-18 04:34:00,
2013-03-17 21:35:00,39.5,32.9,30.11,West,265,11.0,13.0,77,0.00,,OVC031,0.00,VWS V14.01,2013-03-18 04:35:00,
2013-03-17 21:37:00,39.3,32.7,30.11,WSW,237,2.0,6.0,77,0.00,,OVC031,0.00,VWS V14.01,2013-03-18 04:37:00,
2013-03-17 21:38:00,39.3,32.7,30.11,SSW,213,5.0,7.0,77,0.00,,OVC031,0.00,VWS V14.01,2013-03-18 04:38:00,
2013-03-17 21:41:00,39.3,32.7,30.11,SW,220,7.0,7.0,77,0.00,,OVC031,0.00,VWS V14.01,2013-03-18 04:41:00,
2013-03-17 21:42:00,39.3,32.7,30.11,South,178,1.0,7.0,77,0.00,,OVC031,0.00,VWS V14.01,2013-03-18 04:42:00,
2013-03-17 21:43:00,39.3,32.7,30.11,SSW,213,1.0,7.0,77,0.00,,OVC031,0.00,VWS V14.01,2013-03-18 04:43:00,
2013-03-17 21:44:00,39.3,32.7,30.11,SSW,203,1.0,7.0,77,0.00,,OVC031,0.00,VWS V14.01,2013-03-18 04:44:00,
2013-03-17 21:46:00,39.3,33.0,30.11,SSW,210,3.0,3.0,78,0.00,,OVC031,0.00,VWS V14.01,2013-03-18 04:46:00,
2013-03-17 21:48:00,39.3,32.7,30.11,SW,215,7.0,7.0,77,0.00,,OVC031,0.00,VWS V14.01,2013-03-18 04:48:00,
2013-03-17 21:49:00,39.3,32.7,30.11,West,263,6.0,7.0,77,0.00,,OVC031,0.00,VWS V14.01,2013-03-18 04:49:00,
2013-03-17 21:52:00,39.2,32.6,30.11,SSE,160,5.0,6.0,77,0.00,,OVC031,0.00,VWS V14.01,2013-03-18 04:52:00,
2013-03-17 21:55:00,39.2,32.9,30.11,SSW,205,12.0,14.0,78,0.00,,OVC031,0.00,VWS V14.01,2013-03-18 04:55:00,
2013-03-17 21:58:00,39.2,32.6,30.11,SSW,213,6.0,11.0,77,0.00,,OVC031,0.00,VWS V14.01,2013-03-18 04:58:00,
2013-03-17 21:59:00,39.2,32.9,30.11,SW,216,5.0,11.0,78,0.00,,OVC031,0.00,VWS V14.01,2013-03-18 04:59:00,
2013-03-17 22:00:00,39.2,32.9,30.11,SSW,203,6.0,11.0,78,0.00,,OVC031,0.00,VWS V14.01,2013-03-18 05:00:00,
2013-03-17 22:04:00,39.2,32.9,30.11,SSW,209,3.0,7.0,78,0.00,,OVC060,0.00,VWS V14.01,2013-03-18 05:04:00,
2013-03-17 22:05:00,39.2,32.9,30.11,SW,222,4.0,7.0,78,0.00,,OVC060,0.00,VWS V14.01,2013-03-18 05:05:00,
2013-03-17 22:07:00,39.2,32.9,30.11,SW,222,1.0,3.0,78,0.00,,OVC060,0.00,VWS V14.01,2013-03-18 05:07:00,
2013-03-17 22:08:00,39.2,32.9,30.11,SW,222,2.0,3.0,78,0.00,,OVC060,0.00,VWS V14.01,2013-03-18 05:08:00,
2013-03-17 22:10:00,39.2,32.9,30.11,SW,222,3.0,3.0,78,0.00,,OVC060,0.00,VWS V14.01,2013-03-18 05:10:00,
2013-03-17 22:12:00,39.2,32.9,30.11,SW,222,3.0,4.0,78,0.00,,OVC060,0.00,VWS V14.01,2013-03-18 05:12:00,
2013-03-17 22:13:00,39.2,32.9,30.11,SW,222,1.0,5.0,78,0.00,,OVC060,0.00,VWS V14.01,2013-03-18 05:13:00,
2013-03-17 22:15:00,39.2,32.9,30.11,WSW,247,3.0,7.0,78,0.00,,OVC060,0.00,VWS V14.01,2013-03-18 05:15:00,
2013-03-17 22:18:00,39.1,32.8,30.11,SW,227,3.0,10.0,78,0.00,,OVC060,0.00,VWS V14.01,2013-03-18 05:18:00,
2013-03-17 22:19:00,39.1,32.8,30.11,SW,223,5.0,10.0,78,0.00,,OVC060,0.00,VWS V14.01,2013-03-18 05:19:00,
2013-03-17 22:20:00,39.1,33.2,30.11,South,186,3.0,10.0,79,0.00,,OVC060,0.00,VWS V14.01,2013-03-18 05:20:00,
2013-03-17 22:21:00,39.1,33.2,30.11,SSW,200,6.0,10.0,79,0.00,,OVC060,0.00,VWS V14.01,2013-03-18 05:21:00,
2013-03-17 22:24:00,39.1,33.2,30.11,SSW,212,3.0,10.0,79,0.00,,OVC060,0.00,VWS V14.01,2013-03-18 05:24:00,
2013-03-17 22:26:00,39.1,33.2,30.11,South,188,2.0,10.0,79,0.00,,OVC060,0.00,VWS V14.01,2013-03-18 05:26:00,
2013-03-17 22:28:00,39.1,33.2,30.11,SW,223,5.0,10.0,79,0.00,,OVC060,0.00,VWS V14.01,2013-03-18 05:28:00,
2013-03-17 22:30:00,39.1,33.2,30.12,SSW,213,3.0,10.0,79,0.00,,OVC060,0.00,VWS V14.01,2013-03-18 05:30:00,
2013-03-17 22:35:00,39.1,33.5,30.12,SW,226,7.0,9.0,80,0.00,,OVC060,0.00,VWS V14.01,2013-03-18 05:35:00,
2013-03-17 22:36:00,39.1,33.5,30.12,SSW,210,10.0,11.0,80,0.00,,OVC060,0.00,VWS V14.01,2013-03-18 05:36:00,
2013-03-17 22:41:00,39.1,33.5,30.12,SW,216,3.0,11.0,80,0.00,,OVC060,0.00,VWS V14.01,2013-03-18 05:41:00,
2013-03-17 22:42:00,39.1,33.5,30.12,SW,216,2.0,5.0,80,0.00,,OVC060,0.00,VWS V14.01,2013-03-18 05:42:00,
2013-03-17 22:46:00,38.9,33.6,30.12,SSW,208,6.0,6.0,81,0.00,,OVC060,0.00,VWS V14.01,2013-03-18 05:46:00,
2013-03-17 22:48:00,38.9,33.6,30.12,SSW,202,6.0,13.0,81,0.00,,OVC060,0.00,VWS V14.01,2013-03-18 05:48:00,
2013-03-17 22:51:00,38.9,33.6,30.12,WSW,240,8.0,8.0,81,0.00,,OVC060,0.00,VWS V14.01,2013-03-18 05:51:00,
2013-03-17 22:52:00,38.9,33.6,30.12,WSW,248,8.0,10.0,81,0.00,,OVC060,0.00,VWS V14.01,2013-03-18 05:52:00,
2013-03-17 22:56:00,38.9,33.6,30.12,SSW,199,7.0,14.0,81,0.00,,OVC060,0.00,VWS V14.01,2013-03-18 05:56:00,
2013-03-17 22:57:00,38.9,33.6,30.12,SSW,196,2.0,7.0,81,0.00,,OVC060,0.00,VWS V14.01,2013-03-18 05:57:00,
2013-03-17 22:58:00,38.9,33.6,30.12,SSW,196,2.0,7.0,81,0.00,,OVC060,0.00,VWS V14.01,2013-03-18 05:58:00,
2013-03-17 23:02:00,38.8,33.5,30.12,SSW,193,3.0,7.0,81,0.00,,OVC026,0.00,VWS V14.01,2013-03-18 06:02:00,
2013-03-17 23:04:00,38.8,33.8,30.12,WSW,244,2.0,7.0,82,0.00,,OVC026,0.00,VWS V14.01,2013-03-18 06:04:00,
2013-03-17 23:06:00,38.8,33.8,30.12,SSW,202,4.0,11.0,82,0.00,,OVC026,0.00,VWS V14.01,2013-03-18 06:06:00,
2013-03-17 23:12:00,38.8,33.8,30.12,SSW,192,2.0,5.0,82,0.00,,OVC026,0.00,VWS V14.01,2013-03-18 06:12:00,
2013-03-17 23:13:00,38.8,33.8,30.12,SW,219,6.0,6.0,82,0.00,,OVC026,0.00,VWS V14.01,2013-03-18 06:13:00,
2013-03-17 23:14:00,38.8,33.8,30.12,SW,220,3.0,12.0,82,0.00,,OVC026,0.00,VWS V14.01,2013-03-18 06:14:00,
2013-03-17 23:16:00,38.6,33.6,30.12,SSW,196,3.0,12.0,82,0.00,,OVC026,0.00,VWS V14.01,2013-03-18 06:16:00,
2013-03-17 23:17:00,38.6,33.6,30.12,SSW,198,5.0,5.0,82,0.00,,OVC026,0.00,VWS V14.01,2013-03-18 06:17:00,
2013-03-17 23:21:00,38.6,33.6,30.12,SW,226,7.0,12.0,82,0.00,,OVC026,0.00,VWS V14.01,2013-03-18 06:21:00,
2013-03-17 23:22:00,38.6,33.6,30.12,SW,222,3.0,9.0,82,0.00,,OVC026,0.00,VWS V14.01,2013-03-18 06:22:00,
2013-03-17 23:23:00,38.6,33.6,30.12,SW,216,7.0,9.0,82,0.00,,OVC026,0.00,VWS V14.01,2013-03-18 06:23:00,
2013-03-17 23:27:00,38.6,33.9,30.12,SW,230,2.0,3.0,83,0.00,,OVC026,0.00,VWS V14.01,2013-03-18 06:27:00,
2013-03-17 23:28:00,38.6,33.9,30.12,SW,224,5.0,5.0,83,0.00,,OVC026,0.00,VWS V14.01,2013-03-18 06:28:00,
2013-03-17 23:31:00,38.5,33.8,30.12,South,179,3.0,14.0,83,0.00,,OVC026,0.00,VWS V14.01,2013-03-18 06:31:00,
2013-03-17 23:36:00,38.5,33.8,30.12,SW,215,5.0,13.0,83,0.00,,OVC026,0.00,VWS V14.01,2013-03-18 06:36:00,
2013-03-17 23:38:00,38.5,33.8,30.12,West,260,3.0,7.0,83,0.00,,OVC026,0.00,VWS V14.01,2013-03-18 06:38:00,
2013-03-17 23:41:00,38.5,33.8,30.12,SSW,213,3.0,7.0,83,0.00,,OVC026,0.00,VWS V14.01,2013-03-18 06:41:00,
2013-03-17 23:43:00,38.5,34.1,30.12,SSW,199,2.0,7.0,84,0.00,,OVC026,0.00,VWS V14.01,2013-03-18 06:43:00,
2013-03-17 23:44:00,38.5,34.1,30.12,SSW,199,3.0,7.0,84,0.00,,OVC026,0.00,VWS V14.01,2013-03-18 06:44:00,
2013-03-17 23:46:00,38.5,34.1,30.12,WSW,240,3.0,7.0,84,0.00,,OVC026,0.00,VWS V14.01,2013-03-18 06:46:00,
2013-03-17 23:47:00,38.5,34.1,30.12,WSW,240,0.0,3.0,84,0.00,,OVC026,0.00,VWS V14.01,2013-03-18 06:47:00,
2013-03-17 23:49:00,38.3,33.9,30.12,SW,217,6.0,8.0,84,0.00,,OVC026,0.00,VWS V14.01,2013-03-18 06:49:00,
2013-03-17 23:53:00,38.3,33.9,30.12,SW,222,5.0,7.0,84,0.00,,OVC026,0.00,VWS V14.01,2013-03-18 06:53:00,
2013-03-17 23:54:00,38.3,33.9,30.12,SW,222,2.0,7.0,84,0.00,,OVC026,0.00,VWS V14.01,2013-03-18 06:54:00,
2013-03-17 23:56:00,38.3,33.9,30.12,South,182,3.0,3.0,84,0.00,,OVC026,0.00,VWS V14.01,2013-03-18 06:56:00,
2013-03-17 23:59:00,38.3,33.9,30.12,South,189,5.0,5.0,84,0.00,,OVC026,0.00,VWS V14.01,2013-03-18 06:59:00,